Wetterdaten: Montag, 23.02.2015
Datum Zeit Temp. Aussen +5cm Feuchte Auss Luftdruck Regen Sonnenschein Regendauer Solar Windben
23.02.2015 00:00 3,8 C 2,2 C 73 % 1001,3 hPa 0,0 l/m 0 min 0 min 0 W/m 27,2 km/h (4 Bft)
23.02.2015 00:02 3,8 C 2,2 C 73 % 1001,4 hPa 0,0 l/m 0 min 0 min 0 W/m 16,7 km/h (3 Bft)
23.02.2015 00:06 3,8 C 2,8 C 72 % 1001,3 hPa 0,0 l/m 0 min 0 min 0 W/m 33,5 km/h (5 Bft)
23.02.2015 00:08 3,8 C 2,8 C 72 % 1001,1 hPa 0,0 l/m 0 min 0 min 0 W/m 25,1 km/h (4 Bft)
23.02.2015 00:10 3,9 C 2,8 C 72 % 1001,0 hPa 0,0 l/m 0 min 0 min 0 W/m 23,0 km/h (4 Bft)
23.02.2015 00:12 3,9 C 2,8 C 72 % 1001,1 hPa 0,0 l/m 0 min 0 min 0 W/m 35,6 km/h (5 Bft)
23.02.2015 00:14 3,9 C 2,8 C 72 % 1001,0 hPa 0,0 l/m 0 min 0 min 0 W/m 27,2 km/h (4 Bft)
23.02.2015 00:16 3,9 C 2,8 C 72 % 1001,0 hPa 0,0 l/m 0 min 0 min 0 W/m 31,4 km/h (5 Bft)
23.02.2015 00:18 4,0 C 2,8 C 72 % 1001,0 hPa 0,0 l/m 0 min 0 min 0 W/m 27,2 km/h (4 Bft)
23.02.2015 00:20 4,0 C 2,8 C 72 % 1000,9 hPa 0,0 l/m 0 min 0 min 0 W/m 33,5 km/h (5 Bft)
23.02.2015 00:22 4,1 C 2,8 C 72 % 1000,9 hPa 0,0 l/m 0 min 0 min 0 W/m 29,3 km/h (5 Bft)
23.02.2015 00:24 4,1 C 2,8 C 72 % 1000,9 hPa 0,0 l/m 0 min 0 min 0 W/m 27,2 km/h (4 Bft)
23.02.2015 00:26 4,1 C 2,8 C 72 % 1000,8 hPa 0,0 l/m 0 min 0 min 0 W/m 27,2 km/h (4 Bft)
23.02.2015 00:28 4,2 C 2,8 C 72 % 1000,8 hPa 0,0 l/m 0 min 0 min 0 W/m 29,3 km/h (5 Bft)
23.02.2015 00:30 4,2 C 2,8 C 72 % 1000,8 hPa 0,0 l/m 0 min 0 min 0 W/m 25,1 km/h (4 Bft)
23.02.2015 00:32 4,2 C 2,8 C 72 % 1000,8 hPa 0,0 l/m 0 min 0 min 0 W/m 29,3 km/h (5 Bft)
23.02.2015 00:34 4,2 C 2,8 C 73 % 1000,8 hPa 0,0 l/m 0 min 0 min 0 W/m 31,4 km/h (5 Bft)
23.02.2015 00:36 4,2 C 2,8 C 73 % 1000,7 hPa 0,0 l/m 0 min 0 min 0 W/m 35,6 km/h (5 Bft)
23.02.2015 00:38 4,2 C 2,8 C 73 % 1000,6 hPa 0,0 l/m 0 min 0 min 0 W/m 23,0 km/h (4 Bft)
23.02.2015 00:40 4,3 C 2,8 C 73 % 1000,6 hPa 0,0 l/m 0 min 0 min 0 W/m 35,6 km/h (5 Bft)
23.02.2015 00:42 4,3 C 2,8 C 73 % 1000,6 hPa 0,0 l/m 0 min 0 min 0 W/m 35,6 km/h (5 Bft)
23.02.2015 00:44 4,3 C 2,8 C 73 % 1000,4 hPa 0,0 l/m 0 min 0 min 0 W/m 46,0 km/h (6 Bft)
23.02.2015 00:46 4,3 C 2,8 C 74 % 1000,5 hPa 0,0 l/m 0 min 0 min 0 W/m 33,5 km/h (5 Bft)
23.02.2015 00:48 4,3 C 2,8 C 74 % 1000,4 hPa 0,0 l/m 0 min 0 min 0 W/m 48,1 km/h (6 Bft)
23.02.2015 00:50 4,3 C 2,2 C 74 % 1000,4 hPa 0,0 l/m 0 min 0 min 0 W/m 39,7 km/h (6 Bft)
23.02.2015 00:52 4,3 C 2,2 C 75 % 1000,3 hPa 0,0 l/m 0 min 0 min 0 W/m 37,7 km/h (5 Bft)
23.02.2015 00:54 4,2 C 2,2 C 75 % 1000,3 hPa 0,0 l/m 0 min 0 min 0 W/m 37,7 km/h (5 Bft)
23.02.2015 00:56 4,2 C 2,2 C 75 % 1000,4 hPa 0,0 l/m 0 min 0 min 0 W/m 58,6 km/h (7 Bft)
23.02.2015 00:58 4,1 C 2,2 C 76 % 1000,4 hPa 0,0 l/m 0 min 0 min 0 W/m 52,3 km/h (7 Bft)
23.02.2015 01:00 4,1 C 1,7 C 76 % 1000,3 hPa 0,0 l/m 0 min 0 min 0 W/m 60,7 km/h (7 Bft)
23.02.2015 01:02 4,0 C 1,7 C 76 % 1000,1 hPa 0,0 l/m 0 min 0 min 0 W/m 43,9 km/h (6 Bft)
23.02.2015 01:04 4,0 C 1,7 C 77 % 1000,1 hPa 0,0 l/m 0 min 0 min 0 W/m 41,8 km/h (6 Bft)
23.02.2015 01:06 3,9 C 1,7 C 77 % 1000,1 hPa 0,0 l/m 0 min 0 min 0 W/m 39,7 km/h (6 Bft)
23.02.2015 01:08 3,8 C 1,7 C 78 % 1000,0 hPa 0,0 l/m 0 min 2 min 0 W/m 37,7 km/h (5 Bft)
23.02.2015 01:10 3,8 C 1,7 C 78 % 1000,1 hPa 0,0 l/m 0 min 2 min 0 W/m 43,9 km/h (6 Bft)
23.02.2015 01:12 3,7 C 1,7 C 78 % 999,8 hPa 0,0 l/m 0 min 0 min 0 W/m 50,2 km/h (7 Bft)
23.02.2015 01:14 3,7 C 1,7 C 79 % 1000,0 hPa 0,0 l/m 0 min 0 min 0 W/m 48,1 km/h (6 Bft)
23.02.2015 01:16 3,6 C 1,7 C 79 % 1000,0 hPa 0,0 l/m 0 min 0 min 0 W/m 54,4 km/h (7 Bft)
23.02.2015 01:18 3,6 C 1,1 C 79 % 1000,0 hPa 0,0 l/m 0 min 2 min 0 W/m 35,6 km/h (5 Bft)
23.02.2015 01:20 3,6 C 1,1 C 79 % 1000,0 hPa 0,0 l/m 0 min 0 min 0 W/m 50,2 km/h (7 Bft)
23.02.2015 01:22 3,5 C 1,1 C 80 % 999,9 hPa 0,0 l/m 0 min 2 min 0 W/m 43,9 km/h (6 Bft)
23.02.2015 01:24 3,5 C 1,1 C 80 % 999,6 hPa 0,0 l/m 0 min 0 min 0 W/m 46,0 km/h (6 Bft)
23.02.2015 01:26 3,4 C 1,1 C 80 % 999,7 hPa 0,0 l/m 0 min 2 min 0 W/m 46,0 km/h (6 Bft)
23.02.2015 01:28 3,4 C 1,1 C 81 % 999,6 hPa 0,2 l/m 0 min 2 min 0 W/m 43,9 km/h (6 Bft)
23.02.2015 01:30 3,3 C 1,1 C 81 % 999,8 hPa 0,0 l/m 0 min 0 min 0 W/m 46,0 km/h (6 Bft)
23.02.2015 01:32 3,3 C 1,1 C 81 % 999,6 hPa 0,0 l/m 0 min 0 min 0 W/m 50,2 km/h (7 Bft)
23.02.2015 01:34 3,3 C 1,1 C 81 % 999,4 hPa 0,0 l/m 0 min 0 min 0 W/m 41,8 km/h (6 Bft)
23.02.2015 01:36 3,3 C 1,1 C 81 % 999,3 hPa 0,0 l/m 0 min 0 min 0 W/m 35,6 km/h (5 Bft)
23.02.2015 01:38 3,2 C 1,1 C 81 % 999,4 hPa 0,0 l/m 0 min 0 min 0 W/m 46,0 km/h (6 Bft)
23.02.2015 01:40 3,2 C 1,1 C 81 % 999,2 hPa 0,0 l/m 0 min 0 min 0 W/m 39,7 km/h (6 Bft)
23.02.2015 01:42 3,2 C 1,1 C 81 % 999,4 hPa 0,0 l/m 0 min 0 min 0 W/m 46,0 km/h (6 Bft)
23.02.2015 01:44 3,2 C 1,1 C 81 % 999,1 hPa 0,0 l/m 0 min 0 min 0 W/m 52,3 km/h (7 Bft)
23.02.2015 01:46 3,2 C 1,1 C 81 % 999,1 hPa 0,0 l/m 0 min 0 min 0 W/m 31,4 km/h (5 Bft)
23.02.2015 01:48 3,2 C 1,1 C 81 % 999,0 hPa 0,0 l/m 0 min 0 min 0 W/m 39,7 km/h (6 Bft)
23.02.2015 01:50 3,2 C 1,1 C 81 % 999,0 hPa 0,0 l/m 0 min 0 min 0 W/m 52,3 km/h (7 Bft)
23.02.2015 01:52 3,2 C 1,1 C 81 % 999,0 hPa 0,0 l/m 0 min 0 min 0 W/m 43,9 km/h (6 Bft)
23.02.2015 01:54 3,2 C 1,1 C 82 % 998,9 hPa 0,0 l/m 0 min 0 min 0 W/m 35,6 km/h (5 Bft)
23.02.2015 01:56 3,2 C 1,1 C 82 % 998,8 hPa 0,0 l/m 0 min 0 min 0 W/m 52,3 km/h (7 Bft)
23.02.2015 01:58 3,2 C 1,1 C 82 % 998,7 hPa 0,0 l/m 0 min 2 min 0 W/m 58,6 km/h (7 Bft)
23.02.2015 02:00 3,2 C 1,1 C 83 % 998,7 hPa 0,0 l/m 0 min 2 min 0 W/m 56,5 km/h (7 Bft)
23.02.2015 02:02 3,1 C 1,1 C 83 % 998,6 hPa 0,0 l/m 0 min 2 min 0 W/m 41,8 km/h (6 Bft)
23.02.2015 02:04 3,1 C 1,1 C 83 % 998,6 hPa 0,0 l/m 0 min 2 min 0 W/m 33,5 km/h (5 Bft)
23.02.2015 02:06 3,1 C 1,1 C 84 % 998,3 hPa 0,0 l/m 0 min 2 min 0 W/m 41,8 km/h (6 Bft)
23.02.2015 02:08 3,0 C 1,1 C 84 % 998,4 hPa 0,0 l/m 0 min 2 min 0 W/m 37,7 km/h (5 Bft)
23.02.2015 02:10 3,0 C 1,1 C 84 % 998,3 hPa 0,0 l/m 0 min 2 min 0 W/m 48,1 km/h (6 Bft)
23.02.2015 02:12 3,0 C 1,1 C 85 % 998,2 hPa 0,0 l/m 0 min 0 min 0 W/m 33,5 km/h (5 Bft)
23.02.2015 02:14 2,9 C 1,1 C 85 % 998,1 hPa 0,0 l/m 0 min 0 min 0 W/m 35,6 km/h (5 Bft)
23.02.2015 02:16 2,9 C 1,1 C 85 % 998,0 hPa 0,0 l/m 0 min 0 min 0 W/m 37,7 km/h (5 Bft)
23.02.2015 02:18 2,9 C 1,1 C 85 % 998,1 hPa 0,0 l/m 0 min 0 min 0 W/m 31,4 km/h (5 Bft)
23.02.2015 02:20 2,9 C 1,1 C 85 % 998,1 hPa 0,0 l/m 0 min 2 min 0 W/m 35,6 km/h (5 Bft)
23.02.2015 02:22 2,9 C 1,1 C 85 % 998,2 hPa 0,0 l/m 0 min 0 min 0 W/m 43,9 km/h (6 Bft)
23.02.2015 02:24 2,9 C 1,1 C 85 % 997,9 hPa 0,0 l/m 0 min 0 min 0 W/m 48,1 km/h (6 Bft)
23.02.2015 02:26 2,9 C 1,1 C 85 % 997,9 hPa 0,0 l/m 0 min 2 min 0 W/m 27,2 km/h (4 Bft)
23.02.2015 02:28 2,9 C 1,1 C 86 % 997,9 hPa 0,0 l/m 0 min 2 min 0 W/m 48,1 km/h (6 Bft)
23.02.2015 02:30 2,9 C 1,1 C 86 % 997,8 hPa 0,0 l/m 0 min 2 min 0 W/m 43,9 km/h (6 Bft)
23.02.2015 02:32 2,9 C 1,1 C 86 % 997,7 hPa 0,0 l/m 0 min 0 min 0 W/m 29,3 km/h (5 Bft)
23.02.2015 02:34 2,9 C 1,1 C 86 % 997,7 hPa 0,0 l/m 0 min 0 min 0 W/m 41,8 km/h (6 Bft)
23.02.2015 02:36 2,9 C 1,1 C 86 % 997,6 hPa 0,0 l/m 0 min 0 min 0 W/m 29,3 km/h (5 Bft)
23.02.2015 02:38 2,9 C 1,1 C 86 % 997,6 hPa 0,2 l/m 0 min 0 min 0 W/m 33,5 km/h (5 Bft)
23.02.2015 02:40 2,9 C 1,1 C 86 % 997,5 hPa 0,0 l/m 0 min 0 min 0 W/m 29,3 km/h (5 Bft)
23.02.2015 02:42 3,0 C 1,1 C 85 % 997,5 hPa 0,0 l/m 0 min 0 min 0 W/m 31,4 km/h (5 Bft)
23.02.2015 02:44 3,0 C 1,1 C 85 % 997,5 hPa 0,0 l/m 0 min 0 min 0 W/m 29,3 km/h (5 Bft)
23.02.2015 02:46 3,1 C 1,1 C 85 % 997,5 hPa 0,0 l/m 0 min 0 min 0 W/m 27,2 km/h (4 Bft)
23.02.2015 02:48 3,1 C 1,1 C 85 % 997,5 hPa 0,0 l/m 0 min 0 min 0 W/m 46,0 km/h (6 Bft)
23.02.2015 02:50 3,1 C 1,1 C 84 % 997,4 hPa 0,0 l/m 0 min 0 min 0 W/m 37,7 km/h (5 Bft)
23.02.2015 02:52 3,2 C 1,1 C 84 % 997,3 hPa 0,0 l/m 0 min 0 min 0 W/m 25,1 km/h (4 Bft)
23.02.2015 02:54 3,2 C 1,1 C 84 % 997,4 hPa 0,0 l/m 0 min 0 min 0 W/m 33,5 km/h (5 Bft)
23.02.2015 02:56 3,2 C 1,1 C 84 % 997,4 hPa 0,0 l/m 0 min 0 min 0 W/m 31,4 km/h (5 Bft)
23.02.2015 02:58 3,2 C 1,1 C 84 % 997,3 hPa 0,0 l/m 0 min 0 min 0 W/m 39,7 km/h (6 Bft)
23.02.2015 03:00 3,2 C 1,1 C 84 % 997,2 hPa 0,0 l/m 0 min 0 min 0 W/m 37,7 km/h (5 Bft)
23.02.2015 03:02 3,2 C 1,1 C 84 % 997,2 hPa 0,0 l/m 0 min 0 min 0 W/m 33,5 km/h (5 Bft)
23.02.2015 03:04 3,2 C 1,1 C 84 % 997,3 hPa 0,0 l/m 0 min 0 min 0 W/m 31,4 km/h (5 Bft)
23.02.2015 03:06 3,2 C 1,1 C 84 % 997,2 hPa 0,0 l/m 0 min 0 min 0 W/m 46,0 km/h (6 Bft)
23.02.2015 03:08 3,2 C 1,1 C 84 % 997,1 hPa 0,0 l/m 0 min 0 min 0 W/m 18,8 km/h (3 Bft)
23.02.2015 03:10 3,2 C 1,1 C 84 % 997,1 hPa 0,0 l/m 0 min 0 min 0 W/m 23,0 km/h (4 Bft)
23.02.2015 03:12 3,2 C 1,1 C 84 % 997,1 hPa 0,0 l/m 0 min 2 min 0 W/m 29,3 km/h (5 Bft)
23.02.2015 03:14 3,2 C 1,1 C 84 % 997,0 hPa 0,0 l/m 0 min 2 min 0 W/m 20,9 km/h (4 Bft)
23.02.2015 03:16 3,2 C 1,1 C 84 % 996,9 hPa 0,0 l/m 0 min 2 min 0 W/m 33,5 km/h (5 Bft)
23.02.2015 03:18 3,2 C 1,1 C 84 % 996,9 hPa 0,2 l/m 0 min 2 min 0 W/m 31,4 km/h (5 Bft)
23.02.2015 03:20 3,2 C 1,1 C 84 % 996,9 hPa 0,0 l/m 0 min 2 min 0 W/m 18,8 km/h (3 Bft)
23.02.2015 03:22 3,2 C 1,1 C 85 % 996,7 hPa 0,0 l/m 0 min 2 min 0 W/m 14,6 km/h (3 Bft)
23.02.2015 03:24 3,1 C 0,6 C 85 % 996,8 hPa 0,0 l/m 0 min 2 min 0 W/m 14,6 km/h (3 Bft)
23.02.2015 03:26 3,1 C 0,6 C 85 % 996,7 hPa 0,0 l/m 0 min 2 min 0 W/m 23,0 km/h (4 Bft)
23.02.2015 03:28 3,1 C 0,6 C 85 % 996,7 hPa 0,0 l/m 0 min 2 min 0 W/m 20,9 km/h (4 Bft)
23.02.2015 03:30 3,1 C 0,6 C 85 % 996,7 hPa 0,0 l/m 0 min 2 min 0 W/m 20,9 km/h (4 Bft)
23.02.2015 03:32 3,0 C 0,6 C 86 % 996,8 hPa 0,0 l/m 0 min 2 min 0 W/m 25,1 km/h (4 Bft)
23.02.2015 03:34 3,0 C 0,6 C 86 % 996,8 hPa 0,0 l/m 0 min 2 min 0 W/m 18,8 km/h (3 Bft)
23.02.2015 03:36 2,9 C 0,6 C 86 % 996,8 hPa 0,0 l/m 0 min 2 min 0 W/m 18,8 km/h (3 Bft)
23.02.2015 03:38 2,9 C 0,6 C 86 % 996,7 hPa 0,2 l/m 0 min 2 min 0 W/m 16,7 km/h (3 Bft)
23.02.2015 03:40 2,9 C 0,6 C 87 % 996,6 hPa 0,0 l/m 0 min 2 min 0 W/m 25,1 km/h (4 Bft)
23.02.2015 03:42 2,8 C 0,6 C 87 % 996,5 hPa 0,2 l/m 0 min 2 min 0 W/m 25,1 km/h (4 Bft)
23.02.2015 03:44 2,8 C 0,6 C 87 % 996,4 hPa 0,0 l/m 0 min 2 min 0 W/m 20,9 km/h (4 Bft)
23.02.2015 03:46 2,7 C 0,0 C 87 % 996,3 hPa 0,0 l/m 0 min 2 min 0 W/m 20,9 km/h (4 Bft)
23.02.2015 03:48 2,7 C -0,6 C 87 % 996,3 hPa 0,2 l/m 0 min 2 min 0 W/m 29,3 km/h (5 Bft)
23.02.2015 03:50 2,6 C 0,0 C 87 % 996,3 hPa 0,0 l/m 0 min 2 min 0 W/m 37,7 km/h (5 Bft)
23.02.2015 03:52 2,6 C 0,6 C 88 % 996,2 hPa 0,0 l/m 0 min 2 min 0 W/m 27,2 km/h (4 Bft)
23.02.2015 03:54 2,5 C 0,6 C 88 % 996,2 hPa 0,2 l/m 0 min 2 min 0 W/m 27,2 km/h (4 Bft)
23.02.2015 03:56 2,4 C 0,6 C 88 % 996,2 hPa 0,0 l/m 0 min 2 min 0 W/m 27,2 km/h (4 Bft)
23.02.2015 03:58 2,4 C 0,6 C 88 % 996,2 hPa 0,0 l/m 0 min 2 min 0 W/m 23,0 km/h (4 Bft)
23.02.2015 04:00 2,4 C 0,6 C 89 % 996,2 hPa 0,0 l/m 0 min 2 min 0 W/m 20,9 km/h (4 Bft)
23.02.2015 04:02 2,4 C 0,6 C 89 % 996,2 hPa 0,2 l/m 0 min 2 min 0 W/m 20,9 km/h (4 Bft)
23.02.2015 04:04 2,4 C 0,6 C 89 % 996,1 hPa 0,0 l/m 0 min 2 min 0 W/m 18,8 km/h (3 Bft)
23.02.2015 04:06 2,3 C 0,6 C 89 % 996,1 hPa 0,0 l/m 0 min 2 min 0 W/m 23,0 km/h (4 Bft)
23.02.2015 04:08 2,3 C 0,6 C 90 % 996,0 hPa 0,2 l/m 0 min 2 min 0 W/m 20,9 km/h (4 Bft)
23.02.2015 04:10 2,3 C 0,6 C 90 % 996,0 hPa 0,0 l/m 0 min 2 min 0 W/m 16,7 km/h (3 Bft)
23.02.2015 04:12 2,2 C 0,6 C 90 % 996,0 hPa 0,0 l/m 0 min 2 min 0 W/m 18,8 km/h (3 Bft)
23.02.2015 04:14 2,2 C 0,0 C 90 % 996,0 hPa 0,0 l/m 0 min 2 min 0 W/m 29,3 km/h (5 Bft)
23.02.2015 04:16 2,1 C 0,0 C 90 % 995,9 hPa 0,2 l/m 0 min 2 min 0 W/m 20,9 km/h (4 Bft)
23.02.2015 04:18 2,1 C 0,0 C 90 % 995,9 hPa 0,0 l/m 0 min 2 min 0 W/m 16,7 km/h (3 Bft)
23.02.2015 04:20 2,1 C 0,0 C 91 % 995,8 hPa 0,2 l/m 0 min 2 min 0 W/m 18,8 km/h (3 Bft)
23.02.2015 04:22 2,0 C 0,0 C 91 % 995,9 hPa 0,0 l/m 0 min 2 min 0 W/m 16,7 km/h (3 Bft)
23.02.2015 04:24 1,9 C -0,6 C 91 % 995,8 hPa 0,0 l/m 0 min 2 min 0 W/m 18,8 km/h (3 Bft)
23.02.2015 04:26 1,9 C 0,0 C 91 % 995,7 hPa 0,2 l/m 0 min 2 min 0 W/m 18,8 km/h (3 Bft)
23.02.2015 04:28 1,9 C 0,0 C 91 % 995,7 hPa 0,0 l/m 0 min 2 min 0 W/m 14,6 km/h (3 Bft)
23.02.2015 04:30 1,9 C 0,0 C 91 % 995,6 hPa 0,0 l/m 0 min 2 min 0 W/m 16,7 km/h (3 Bft)
23.02.2015 04:32 1,8 C 0,0 C 91 % 995,6 hPa 0,0 l/m 0 min 2 min 0 W/m 20,9 km/h (4 Bft)
23.02.2015 04:34 1,8 C 0,0 C 91 % 995,7 hPa 0,0 l/m 0 min 2 min 0 W/m 16,7 km/h (3 Bft)
23.02.2015 04:36 1,7 C 0,0 C 91 % 995,7 hPa 0,2 l/m 0 min 2 min 0 W/m 18,8 km/h (3 Bft)
23.02.2015 04:38 1,7 C 0,0 C 92 % 995,7 hPa 0,0 l/m 0 min 2 min 0 W/m 20,9 km/h (4 Bft)
23.02.2015 04:40 1,7 C 0,0 C 92 % 995,7 hPa 0,0 l/m 0 min 2 min 0 W/m 14,6 km/h (3 Bft)
23.02.2015 04:42 1,6 C -0,6 C 92 % 995,7 hPa 0,0 l/m 0 min 2 min 0 W/m 20,9 km/h (4 Bft)
23.02.2015 04:44 1,6 C 0,0 C 92 % 995,8 hPa 0,2 l/m 0 min 2 min 0 W/m 18,8 km/h (3 Bft)
23.02.2015 04:46 1,5 C -0,6 C 92 % 995,7 hPa 0,0 l/m 0 min 2 min 0 W/m 16,7 km/h (3 Bft)
23.02.2015 04:48 1,5 C 0,0 C 92 % 995,7 hPa 0,0 l/m 0 min 2 min 0 W/m 20,9 km/h (4 Bft)
23.02.2015 04:50 1,4 C 0,0 C 92 % 995,6 hPa 0,0 l/m 0 min 2 min 0 W/m 27,2 km/h (4 Bft)
23.02.2015 04:52 1,4 C 0,0 C 92 % 995,6 hPa 0,2 l/m 0 min 2 min 0 W/m 16,7 km/h (3 Bft)
23.02.2015 04:54 1,4 C 0,0 C 92 % 995,6 hPa 0,0 l/m 0 min 2 min 0 W/m 20,9 km/h (4 Bft)
23.02.2015 04:56 1,4 C 0,0 C 92 % 995,6 hPa 0,0 l/m 0 min 2 min 0 W/m 16,7 km/h (3 Bft)
23.02.2015 04:58 1,4 C 0,0 C 93 % 995,6 hPa 0,0 l/m 0 min 2 min 0 W/m 27,2 km/h (4 Bft)
23.02.2015 05:00 1,4 C 0,0 C 93 % 995,6 hPa 0,0 l/m 0 min 2 min 0 W/m 25,1 km/h (4 Bft)
23.02.2015 05:02 1,4 C 0,0 C 93 % 995,6 hPa 0,2 l/m 0 min 2 min 0 W/m 16,7 km/h (3 Bft)
23.02.2015 05:04 1,3 C 0,0 C 93 % 995,6 hPa 0,0 l/m 0 min 2 min 0 W/m 29,3 km/h (5 Bft)
23.02.2015 05:06 1,4 C 0,0 C 93 % 995,6 hPa 0,2 l/m 0 min 2 min 0 W/m 20,9 km/h (4 Bft)
23.02.2015 05:08 1,4 C 0,0 C 93 % 995,7 hPa 0,0 l/m 0 min 2 min 0 W/m 23,0 km/h (4 Bft)
23.02.2015 05:10 1,4 C 0,0 C 93 % 995,6 hPa 0,0 l/m 0 min 2 min 0 W/m 25,1 km/h (4 Bft)
23.02.2015 05:12 1,4 C 0,0 C 93 % 995,5 hPa 0,2 l/m 0 min 2 min 0 W/m 20,9 km/h (4 Bft)
23.02.2015 05:14 1,4 C 0,0 C 93 % 995,5 hPa 0,0 l/m 0 min 2 min 0 W/m 20,9 km/h (4 Bft)
23.02.2015 05:16 1,4 C 0,0 C 93 % 995,5 hPa 0,0 l/m 0 min 2 min 0 W/m 25,1 km/h (4 Bft)
23.02.2015 05:18 1,4 C 0,0 C 93 % 995,6 hPa 0,0 l/m 0 min 2 min 0 W/m 20,9 km/h (4 Bft)
23.02.2015 05:20 1,4 C 0,0 C 94 % 995,6 hPa 0,2 l/m 0 min 2 min 0 W/m 18,8 km/h (3 Bft)
23.02.2015 05:22 1,4 C 0,0 C 94 % 995,6 hPa 0,0 l/m 0 min 2 min 0 W/m 18,8 km/h (3 Bft)
23.02.2015 05:24 1,4 C 0,0 C 94 % 995,4 hPa 0,2 l/m 0 min 2 min 0 W/m 18,8 km/h (3 Bft)
23.02.2015 05:26 1,4 C 0,0 C 94 % 995,5 hPa 0,0 l/m 0 min 2 min 0 W/m 23,0 km/h (4 Bft)
23.02.2015 05:28 1,4 C 0,0 C 94 % 995,5 hPa 0,2 l/m 0 min 2 min 0 W/m 23,0 km/h (4 Bft)
23.02.2015 05:30 1,4 C 0,6 C 94 % 995,4 hPa 0,0 l/m 0 min 2 min 0 W/m 23,0 km/h (4 Bft)
23.02.2015 05:32 1,4 C 0,6 C 94 % 995,5 hPa 0,2 l/m 0 min 2 min 0 W/m 18,8 km/h (3 Bft)
23.02.2015 05:34 1,5 C 0,0 C 94 % 995,4 hPa 0,0 l/m 0 min 2 min 0 W/m 18,8 km/h (3 Bft)
23.02.2015 05:36 1,5 C 0,0 C 94 % 995,4 hPa 0,2 l/m 0 min 2 min 0 W/m 27,2 km/h (4 Bft)
23.02.2015 05:38 1,5 C 0,0 C 94 % 995,4 hPa 0,0 l/m 0 min 2 min 0 W/m 27,2 km/h (4 Bft)
23.02.2015 05:40 1,5 C 0,0 C 94 % 995,3 hPa 0,2 l/m 0 min 2 min 0 W/m 20,9 km/h (4 Bft)
23.02.2015 05:42 1,6 C 0,6 C 94 % 995,3 hPa 0,2 l/m 0 min 2 min 0 W/m 16,7 km/h (3 Bft)
23.02.2015 05:44 1,6 C 0,6 C 94 % 995,4 hPa 0,0 l/m 0 min 2 min 0 W/m 14,6 km/h (3 Bft)
23.02.2015 05:46 1,6 C 0,6 C 95 % 995,3 hPa 0,2 l/m 0 min 2 min 0 W/m 25,1 km/h (4 Bft)
23.02.2015 05:48 1,6 C 0,6 C 95 % 995,3 hPa 0,0 l/m 0 min 2 min 0 W/m 20,9 km/h (4 Bft)
23.02.2015 05:50 1,6 C 0,6 C 95 % 995,3 hPa 0,2 l/m 0 min 2 min 0 W/m 20,9 km/h (4 Bft)
23.02.2015 05:52 1,6 C 0,6 C 95 % 995,2 hPa 0,0 l/m 0 min 2 min 0 W/m 18,8 km/h (3 Bft)
23.02.2015 05:54 1,7 C 0,6 C 95 % 995,2 hPa 0,0 l/m 0 min 2 min 0 W/m 20,9 km/h (4 Bft)
23.02.2015 05:56 1,7 C 0,6 C 95 % 995,3 hPa 0,2 l/m 0 min 2 min 0 W/m 12,6 km/h (3 Bft)
23.02.2015 05:58 1,7 C 0,6 C 95 % 995,2 hPa 0,0 l/m 0 min 2 min 0 W/m 14,6 km/h (3 Bft)
23.02.2015 06:00 1,7 C 0,6 C 95 % 995,2 hPa 0,2 l/m 0 min 2 min 0 W/m 14,6 km/h (3 Bft)
23.02.2015 06:02 1,7 C 0,6 C 95 % 995,0 hPa 0,0 l/m 0 min 2 min 0 W/m 18,8 km/h (3 Bft)
23.02.2015 06:06 1,8 C 0,6 C 95 % 994,9 hPa 0,2 l/m 0 min 2 min 0 W/m 16,7 km/h (3 Bft)
23.02.2015 06:08 1,8 C 0,6 C 95 % 994,9 hPa 0,0 l/m 0 min 2 min 0 W/m 14,6 km/h (3 Bft)
23.02.2015 06:10 1,8 C 1,1 C 95 % 994,8 hPa 0,2 l/m 0 min 2 min 0 W/m 18,8 km/h (3 Bft)
23.02.2015 06:12 1,8 C 1,1 C 95 % 994,9 hPa 0,0 l/m 0 min 2 min 0 W/m 16,7 km/h (3 Bft)
23.02.2015 06:14 1,9 C 1,1 C 95 % 994,9 hPa 0,0 l/m 0 min 2 min 0 W/m 18,8 km/h (3 Bft)
23.02.2015 06:16 1,9 C 1,1 C 95 % 994,9 hPa 0,0 l/m 0 min 2 min 0 W/m 20,9 km/h (4 Bft)
23.02.2015 06:18 1,9 C 1,1 C 95 % 994,9 hPa 0,0 l/m 0 min 2 min 0 W/m 12,6 km/h (3 Bft)
23.02.2015 06:20 1,9 C 1,1 C 95 % 994,9 hPa 0,2 l/m 0 min 2 min 0 W/m 16,7 km/h (3 Bft)
23.02.2015 06:22 2,0 C 1,1 C 95 % 994,9 hPa 0,0 l/m 0 min 2 min 0 W/m 16,7 km/h (3 Bft)
23.02.2015 06:24 2,0 C 1,1 C 95 % 994,8 hPa 0,2 l/m 0 min 2 min 0 W/m 14,6 km/h (3 Bft)
23.02.2015 06:26 2,1 C 1,1 C 95 % 994,8 hPa 0,0 l/m 0 min 2 min 0 W/m 16,7 km/h (3 Bft)
23.02.2015 06:28 2,1 C 1,1 C 96 % 994,8 hPa 0,0 l/m 0 min 2 min 0 W/m 18,8 km/h (3 Bft)
23.02.2015 06:30 2,1 C 1,1 C 96 % 994,9 hPa 0,2 l/m 0 min 2 min 0 W/m 12,6 km/h (3 Bft)
23.02.2015 06:32 2,2 C 1,1 C 96 % 994,9 hPa 0,0 l/m 0 min 2 min 0 W/m 14,6 km/h (3 Bft)
23.02.2015 06:34 2,2 C 1,1 C 96 % 994,8 hPa 0,2 l/m 0 min 2 min 0 W/m 18,8 km/h (3 Bft)
23.02.2015 06:36 2,2 C 1,1 C 96 % 994,8 hPa 0,0 l/m 0 min 2 min 0 W/m 18,8 km/h (3 Bft)
23.02.2015 06:38 2,3 C 1,7 C 96 % 994,7 hPa 0,0 l/m 0 min 2 min 0 W/m 18,8 km/h (3 Bft)
23.02.2015 06:40 2,3 C 1,7 C 96 % 994,8 hPa 0,0 l/m 0 min 2 min 0 W/m 16,7 km/h (3 Bft)
23.02.2015 06:42 2,4 C 1,7 C 96 % 994,7 hPa 0,0 l/m 0 min 2 min 0 W/m 14,6 km/h (3 Bft)
23.02.2015 06:44 2,4 C 1,7 C 96 % 994,7 hPa 0,0 l/m 0 min 2 min 0 W/m 14,6 km/h (3 Bft)
23.02.2015 06:46 2,5 C 1,7 C 96 % 994,8 hPa 0,0 l/m 0 min 2 min 0 W/m 16,7 km/h (3 Bft)
23.02.2015 06:48 2,5 C 1,7 C 96 % 994,8 hPa 0,2 l/m 0 min 2 min 0 W/m 14,6 km/h (3 Bft)
23.02.2015 06:50 2,6 C 1,7 C 96 % 994,7 hPa 0,0 l/m 0 min 2 min 0 W/m 25,1 km/h (4 Bft)
23.02.2015 06:52 2,7 C 1,7 C 96 % 994,7 hPa 0,0 l/m 0 min 2 min 0 W/m 18,8 km/h (3 Bft)
23.02.2015 06:54 2,7 C 1,7 C 96 % 994,8 hPa 0,0 l/m 0 min 2 min 0 W/m 16,7 km/h (3 Bft)
23.02.2015 06:56 2,8 C 1,7 C 96 % 994,8 hPa 0,2 l/m 0 min 2 min 0 W/m 16,7 km/h (3 Bft)
23.02.2015 06:58 2,8 C 1,7 C 96 % 994,7 hPa 0,0 l/m 0 min 2 min 0 W/m 18,8 km/h (3 Bft)
23.02.2015 07:00 2,9 C 1,7 C 96 % 994,8 hPa 0,0 l/m 0 min 2 min 0 W/m 18,8 km/h (3 Bft)
23.02.2015 07:02 2,9 C 1,7 C 96 % 994,8 hPa 0,2 l/m 0 min 2 min 0 W/m 16,7 km/h (3 Bft)
23.02.2015 07:04 2,9 C 1,7 C 96 % 994,7 hPa 0,0 l/m 0 min 2 min 0 W/m 14,6 km/h (3 Bft)
23.02.2015 07:06 3,0 C 1,7 C 96 % 994,8 hPa 0,0 l/m 0 min 2 min 0 W/m 14,6 km/h (3 Bft)
23.02.2015 07:08 3,0 C 1,7 C 96 % 994,7 hPa 0,0 l/m 0 min 2 min 0 W/m 18,8 km/h (3 Bft)
23.02.2015 07:10 3,0 C 1,7 C 96 % 994,7 hPa 0,2 l/m 0 min 2 min 0 W/m 8,4 km/h (2 Bft)
23.02.2015 07:12 3,1 C 1,7 C 96 % 994,8 hPa 0,0 l/m 0 min 2 min 0 W/m 14,6 km/h (3 Bft)
23.02.2015 07:14 3,1 C 1,7 C 97 % 994,8 hPa 0,0 l/m 0 min 2 min 0 W/m 10,5 km/h (2 Bft)
23.02.2015 07:16 3,1 C 1,7 C 97 % 994,8 hPa 0,0 l/m 0 min 2 min 0 W/m 14,6 km/h (3 Bft)
23.02.2015 07:18 3,1 C 1,7 C 97 % 994,8 hPa 0,0 l/m 0 min 2 min 0 W/m 14,6 km/h (3 Bft)
23.02.2015 07:20 3,1 C 1,7 C 97 % 994,9 hPa 0,0 l/m 0 min 2 min 0 W/m 12,6 km/h (3 Bft)
23.02.2015 07:22 3,1 C 1,7 C 97 % 995,0 hPa 0,2 l/m 0 min 2 min 0 W/m 10,5 km/h (2 Bft)
23.02.2015 07:24 3,1 C 1,7 C 97 % 995,0 hPa 0,0 l/m 0 min 2 min 0 W/m 6,3 km/h (2 Bft)
23.02.2015 07:26 3,1 C 1,7 C 97 % 995,0 hPa 0,0 l/m 0 min 2 min 0 W/m 6,3 km/h (2 Bft)
23.02.2015 07:28 3,1 C 1,7 C 97 % 995,0 hPa 0,2 l/m 0 min 2 min 0 W/m 8,4 km/h (2 Bft)
23.02.2015 07:30 3,1 C 1,7 C 97 % 995,0 hPa 0,0 l/m 0 min 2 min 0 W/m 8,4 km/h (2 Bft)
23.02.2015 07:32 3,1 C 1,7 C 97 % 994,9 hPa 0,0 l/m 0 min 2 min 0 W/m 8,4 km/h (2 Bft)
23.02.2015 07:34 3,2 C 1,7 C 97 % 994,9 hPa 0,0 l/m 0 min 2 min 0 W/m 8,4 km/h (2 Bft)
23.02.2015 07:36 3,2 C 1,7 C 97 % 994,8 hPa 0,0 l/m 0 min 2 min 0 W/m 12,6 km/h (3 Bft)
23.02.2015 07:38 3,2 C 1,7 C 97 % 994,8 hPa 0,2 l/m 0 min 2 min 0 W/m 14,6 km/h (3 Bft)
23.02.2015 07:40 3,2 C 2,2 C 97 % 994,9 hPa 0,0 l/m 0 min 2 min 0 W/m 12,6 km/h (3 Bft)
23.02.2015 07:42 3,2 C 2,2 C 97 % 994,9 hPa 0,0 l/m 0 min 2 min 0 W/m 14,6 km/h (3 Bft)
23.02.2015 07:44 3,2 C 2,2 C 97 % 994,9 hPa 0,0 l/m 0 min 2 min 0 W/m 12,6 km/h (3 Bft)
23.02.2015 07:46 3,2 C 2,2 C 97 % 994,9 hPa 0,0 l/m 0 min 2 min 0 W/m 12,6 km/h (3 Bft)
23.02.2015 07:48 3,2 C 2,2 C 97 % 994,9 hPa 0,2 l/m 0 min 2 min 0 W/m 10,5 km/h (2 Bft)
23.02.2015 07:50 3,2 C 2,2 C 97 % 994,9 hPa 0,0 l/m 0 min 2 min 0 W/m 14,6 km/h (3 Bft)
23.02.2015 07:52 3,2 C 2,2 C 97 % 995,0 hPa 0,0 l/m 0 min 2 min 0 W/m 14,6 km/h (3 Bft)
23.02.2015 07:54 3,2 C 2,2 C 97 % 995,0 hPa 0,0 l/m 0 min 2 min 0 W/m 14,6 km/h (3 Bft)
23.02.2015 07:56 3,2 C 2,2 C 97 % 995,0 hPa 0,0 l/m 0 min 2 min 0 W/m 10,5 km/h (2 Bft)
23.02.2015 07:58 3,2 C 1,7 C 97 % 995,0 hPa 0,2 l/m 0 min 2 min 0 W/m 10,5 km/h (2 Bft)
23.02.2015 08:00 3,2 C 1,7 C 97 % 995,0 hPa 0,0 l/m 0 min 0 min 0 W/m 10,5 km/h (2 Bft)
23.02.2015 08:02 3,2 C 1,7 C 97 % 995,0 hPa 0,0 l/m 0 min 0 min 0 W/m 10,5 km/h (2 Bft)
23.02.2015 08:04 3,2 C 1,7 C 97 % 995,0 hPa 0,2 l/m 0 min 0 min 0 W/m 14,6 km/h (3 Bft)
23.02.2015 08:06 3,2 C 1,7 C 97 % 995,1 hPa 0,0 l/m 0 min 0 min 0 W/m 10,5 km/h (2 Bft)
23.02.2015 08:08 3,2 C 1,7 C 97 % 995,0 hPa 0,0 l/m 0 min 2 min 0 W/m 14,6 km/h (3 Bft)
23.02.2015 08:10 3,2 C 1,7 C 97 % 995,1 hPa 0,0 l/m 0 min 0 min 0 W/m 10,5 km/h (2 Bft)
23.02.2015 08:12 3,1 C 1,7 C 97 % 995,1 hPa 0,0 l/m 0 min 2 min 3 W/m 12,6 km/h (3 Bft)
23.02.2015 08:14 3,1 C 1,7 C 97 % 995,1 hPa 0,2 l/m 0 min 2 min 5 W/m 16,7 km/h (3 Bft)
23.02.2015 08:16 3,1 C 1,7 C 97 % 995,1 hPa 0,0 l/m 0 min 2 min 5 W/m 12,6 km/h (3 Bft)
23.02.2015 08:18 3,1 C 1,7 C 97 % 995,0 hPa 0,0 l/m 0 min 2 min 5 W/m 8,4 km/h (2 Bft)
23.02.2015 08:20 3,1 C 1,7 C 97 % 995,0 hPa 0,2 l/m 0 min 2 min 5 W/m 10,5 km/h (2 Bft)
23.02.2015 08:22 3,1 C 1,7 C 97 % 995,1 hPa 0,0 l/m 0 min 2 min 5 W/m 16,7 km/h (3 Bft)
23.02.2015 08:24 3,0 C 1,7 C 97 % 995,1 hPa 0,0 l/m 0 min 2 min 5 W/m 10,5 km/h (2 Bft)
23.02.2015 08:26 3,0 C 1,7 C 97 % 995,1 hPa 0,0 l/m 0 min 2 min 5 W/m 12,6 km/h (3 Bft)
23.02.2015 08:28 3,0 C 1,7 C 97 % 995,1 hPa 0,0 l/m 0 min 2 min 5 W/m 12,6 km/h (3 Bft)
23.02.2015 08:30 3,0 C 1,7 C 97 % 995,1 hPa 0,0 l/m 0 min 2 min 5 W/m 12,6 km/h (3 Bft)
23.02.2015 08:32 3,0 C 1,7 C 97 % 995,0 hPa 0,2 l/m 0 min 2 min 6 W/m 12,6 km/h (3 Bft)
23.02.2015 08:34 3,0 C 1,7 C 97 % 995,1 hPa 0,0 l/m 0 min 2 min 7 W/m 16,7 km/h (3 Bft)
23.02.2015 08:36 2,9 C 1,7 C 97 % 995,1 hPa 0,0 l/m 0 min 2 min 7 W/m 16,7 km/h (3 Bft)
23.02.2015 08:38 2,9 C 1,7 C 97 % 995,1 hPa 0,2 l/m 0 min 2 min 8 W/m 16,7 km/h (3 Bft)
23.02.2015 08:40 2,9 C 1,7 C 97 % 995,2 hPa 0,0 l/m 0 min 0 min 7 W/m 12,6 km/h (3 Bft)
23.02.2015 08:42 2,9 C 1,7 C 97 % 995,1 hPa 0,0 l/m 0 min 2 min 7 W/m 12,6 km/h (3 Bft)
23.02.2015 08:44 2,9 C 1,7 C 97 % 995,1 hPa 0,0 l/m 0 min 2 min 8 W/m 10,5 km/h (2 Bft)
23.02.2015 08:46 2,9 C 1,7 C 97 % 995,1 hPa 0,2 l/m 0 min 2 min 10 W/m 8,4 km/h (2 Bft)
23.02.2015 08:48 2,9 C 1,7 C 97 % 995,0 hPa 0,0 l/m 0 min 2 min 11 W/m 12,6 km/h (3 Bft)
23.02.2015 08:50 2,9 C 1,7 C 97 % 995,0 hPa 0,0 l/m 0 min 2 min 11 W/m 14,6 km/h (3 Bft)
23.02.2015 08:52 2,9 C 1,7 C 97 % 995,0 hPa 0,0 l/m 0 min 2 min 11 W/m 14,6 km/h (3 Bft)
23.02.2015 08:54 2,9 C 1,7 C 97 % 994,9 hPa 0,0 l/m 0 min 2 min 11 W/m 16,7 km/h (3 Bft)
23.02.2015 08:56 2,9 C 1,7 C 97 % 994,9 hPa 0,0 l/m 0 min 2 min 12 W/m 16,7 km/h (3 Bft)
23.02.2015 08:58 2,9 C 1,7 C 97 % 994,9 hPa 0,2 l/m 0 min 2 min 12 W/m 16,7 km/h (3 Bft)
23.02.2015 09:00 2,9 C 1,7 C 97 % 994,8 hPa 0,0 l/m 0 min 2 min 12 W/m 18,8 km/h (3 Bft)
23.02.2015 09:02 2,9 C 1,7 C 97 % 994,6 hPa 0,0 l/m 0 min 2 min 14 W/m 18,8 km/h (3 Bft)
23.02.2015 09:04 2,9 C 1,7 C 97 % 994,5 hPa 0,0 l/m 0 min 2 min 16 W/m 16,7 km/h (3 Bft)
23.02.2015 09:06 2,9 C 1,7 C 97 % 994,6 hPa 0,0 l/m 0 min 2 min 16 W/m 16,7 km/h (3 Bft)
23.02.2015 09:08 2,9 C 1,7 C 97 % 994,4 hPa 0,0 l/m 0 min 2 min 18 W/m 20,9 km/h (4 Bft)
23.02.2015 09:10 2,9 C 1,7 C 97 % 994,2 hPa 0,0 l/m 0 min 2 min 21 W/m 18,8 km/h (3 Bft)
23.02.2015 09:12 2,9 C 1,7 C 97 % 994,3 hPa 0,0 l/m 0 min 2 min 22 W/m 18,8 km/h (3 Bft)
23.02.2015 09:14 2,9 C 1,7 C 97 % 994,5 hPa 0,0 l/m 0 min 2 min 25 W/m 14,6 km/h (3 Bft)
23.02.2015 09:16 2,9 C 1,7 C 97 % 994,6 hPa 0,0 l/m 0 min 2 min 26 W/m 14,6 km/h (3 Bft)
23.02.2015 09:18 2,9 C 2,2 C 97 % 994,6 hPa 0,2 l/m 0 min 2 min 26 W/m 14,6 km/h (3 Bft)
23.02.2015 09:20 2,9 C 2,2 C 97 % 994,5 hPa 0,0 l/m 0 min 2 min 28 W/m 18,8 km/h (3 Bft)
23.02.2015 09:22 2,9 C 2,2 C 97 % 994,6 hPa 0,0 l/m 0 min 0 min 26 W/m 16,7 km/h (3 Bft)
23.02.2015 09:24 3,0 C 2,2 C 97 % 994,6 hPa 0,0 l/m 0 min 0 min 25 W/m 16,7 km/h (3 Bft)
23.02.2015 09:26 3,0 C 2,2 C 97 % 994,5 hPa 0,0 l/m 0 min 0 min 32 W/m 10,5 km/h (2 Bft)
23.02.2015 09:28 3,0 C 2,2 C 97 % 994,5 hPa 0,0 l/m 0 min 0 min 35 W/m 14,6 km/h (3 Bft)
23.02.2015 09:30 3,0 C 2,2 C 97 % 994,5 hPa 0,0 l/m 0 min 0 min 37 W/m 12,6 km/h (3 Bft)
23.02.2015 09:32 3,1 C 2,2 C 97 % 994,6 hPa 0,0 l/m 0 min 2 min 39 W/m 10,5 km/h (2 Bft)
23.02.2015 09:34 3,1 C 2,2 C 97 % 994,5 hPa 0,0 l/m 0 min 2 min 39 W/m 10,5 km/h (2 Bft)
23.02.2015 09:36 3,1 C 2,2 C 97 % 994,6 hPa 0,0 l/m 0 min 2 min 33 W/m 16,7 km/h (3 Bft)
23.02.2015 09:38 3,1 C 2,2 C 97 % 994,7 hPa 0,0 l/m 0 min 0 min 30 W/m 10,5 km/h (2 Bft)
23.02.2015 09:40 3,1 C 2,2 C 97 % 994,7 hPa 0,0 l/m 0 min 2 min 28 W/m 14,6 km/h (3 Bft)
23.02.2015 09:42 3,2 C 2,2 C 97 % 994,7 hPa 0,0 l/m 0 min 0 min 31 W/m 10,5 km/h (2 Bft)
23.02.2015 09:44 3,2 C 2,2 C 97 % 994,7 hPa 0,0 l/m 0 min 2 min 30 W/m 8,4 km/h (2 Bft)
23.02.2015 09:46 3,2 C 2,2 C 97 % 994,7 hPa 0,0 l/m 0 min 2 min 30 W/m 14,6 km/h (3 Bft)
23.02.2015 09:48 3,2 C 2,2 C 97 % 994,7 hPa 0,0 l/m 0 min 2 min 30 W/m 14,6 km/h (3 Bft)
23.02.2015 09:50 3,3 C 2,8 C 97 % 994,7 hPa 0,0 l/m 0 min 2 min 34 W/m 10,5 km/h (2 Bft)
23.02.2015 09:52 3,3 C 2,8 C 97 % 994,7 hPa 0,0 l/m 0 min 0 min 39 W/m 16,7 km/h (3 Bft)
23.02.2015 09:54 3,4 C 2,8 C 97 % 994,7 hPa 0,0 l/m 0 min 0 min 40 W/m 16,7 km/h (3 Bft)
23.02.2015 09:56 3,4 C 2,8 C 97 % 994,7 hPa 0,0 l/m 0 min 0 min 41 W/m 25,1 km/h (4 Bft)
23.02.2015 09:58 3,4 C 2,8 C 97 % 994,6 hPa 0,0 l/m 0 min 2 min 42 W/m 20,9 km/h (4 Bft)
23.02.2015 10:00 3,5 C 2,8 C 97 % 994,6 hPa 0,0 l/m 0 min 0 min 40 W/m 16,7 km/h (3 Bft)
23.02.2015 10:02 3,5 C 2,8 C 97 % 994,5 hPa 0,0 l/m 0 min 2 min 40 W/m 14,6 km/h (3 Bft)
23.02.2015 10:04 3,5 C 2,8 C 97 % 994,4 hPa 0,0 l/m 0 min 0 min 42 W/m 10,5 km/h (2 Bft)
23.02.2015 10:06 3,6 C 2,8 C 97 % 994,3 hPa 0,0 l/m 0 min 0 min 46 W/m 20,9 km/h (4 Bft)
23.02.2015 10:08 3,6 C 2,8 C 97 % 994,3 hPa 0,0 l/m 0 min 2 min 44 W/m 18,8 km/h (3 Bft)
23.02.2015 10:10 3,6 C 2,8 C 97 % 994,3 hPa 0,0 l/m 0 min 0 min 42 W/m 20,9 km/h (4 Bft)
23.02.2015 10:12 3,6 C 2,8 C 97 % 994,3 hPa 0,0 l/m 0 min 0 min 43 W/m 14,6 km/h (3 Bft)
23.02.2015 10:14 3,6 C 2,8 C 97 % 994,3 hPa 0,0 l/m 0 min 0 min 46 W/m 18,8 km/h (3 Bft)
23.02.2015 10:16 3,6 C 2,8 C 98 % 994,3 hPa 0,0 l/m 0 min 0 min 46 W/m 18,8 km/h (3 Bft)
23.02.2015 10:18 3,7 C 2,8 C 98 % 994,2 hPa 0,0 l/m 0 min 0 min 46 W/m 16,7 km/h (3 Bft)
23.02.2015 10:20 3,7 C 2,8 C 98 % 994,3 hPa 0,0 l/m 0 min 0 min 46 W/m 12,6 km/h (3 Bft)
23.02.2015 10:22 3,7 C 2,8 C 98 % 994,3 hPa 0,0 l/m 0 min 0 min 46 W/m 12,6 km/h (3 Bft)
23.02.2015 10:24 3,7 C 2,8 C 98 % 994,2 hPa 0,0 l/m 0 min 0 min 46 W/m 10,5 km/h (2 Bft)
23.02.2015 10:26 3,7 C 2,8 C 98 % 994,3 hPa 0,0 l/m 0 min 0 min 46 W/m 16,7 km/h (3 Bft)
23.02.2015 10:28 3,7 C 2,8 C 98 % 994,2 hPa 0,0 l/m 0 min 0 min 52 W/m 16,7 km/h (3 Bft)
23.02.2015 10:30 3,7 C 2,8 C 98 % 994,2 hPa 0,0 l/m 0 min 0 min 59 W/m 12,6 km/h (3 Bft)
23.02.2015 10:32 3,7 C 2,8 C 98 % 994,3 hPa 0,0 l/m 0 min 0 min 57 W/m 14,6 km/h (3 Bft)
23.02.2015 10:34 3,7 C 2,8 C 98 % 994,4 hPa 0,0 l/m 0 min 0 min 53 W/m 20,9 km/h (4 Bft)
23.02.2015 10:36 3,8 C 2,8 C 98 % 994,5 hPa 0,0 l/m 0 min 0 min 48 W/m 12,6 km/h (3 Bft)
23.02.2015 10:38 3,8 C 2,8 C 98 % 994,6 hPa 0,0 l/m 0 min 0 min 45 W/m 8,4 km/h (2 Bft)
23.02.2015 10:40 3,8 C 2,8 C 98 % 994,5 hPa 0,0 l/m 0 min 0 min 43 W/m 8,4 km/h (2 Bft)
23.02.2015 10:42 3,8 C 2,8 C 98 % 994,5 hPa 0,0 l/m 0 min 0 min 41 W/m 10,5 km/h (2 Bft)
23.02.2015 10:44 3,8 C 2,8 C 98 % 994,5 hPa 0,0 l/m 0 min 0 min 38 W/m 16,7 km/h (3 Bft)
23.02.2015 10:46 3,8 C 2,8 C 98 % 994,3 hPa 0,0 l/m 0 min 0 min 40 W/m 10,5 km/h (2 Bft)
23.02.2015 10:48 3,8 C 2,8 C 98 % 994,1 hPa 0,0 l/m 0 min 0 min 42 W/m 20,9 km/h (4 Bft)
23.02.2015 10:50 3,8 C 2,8 C 98 % 994,1 hPa 0,0 l/m 0 min 0 min 40 W/m 18,8 km/h (3 Bft)
23.02.2015 10:52 3,9 C 2,8 C 98 % 994,2 hPa 0,0 l/m 0 min 0 min 39 W/m 10,5 km/h (2 Bft)
23.02.2015 10:54 3,9 C 3,3 C 98 % 994,3 hPa 0,0 l/m 0 min 0 min 42 W/m 14,6 km/h (3 Bft)
23.02.2015 10:56 3,9 C 3,3 C 98 % 994,2 hPa 0,0 l/m 0 min 0 min 50 W/m 10,5 km/h (2 Bft)
23.02.2015 10:58 3,9 C 3,3 C 98 % 994,2 hPa 0,0 l/m 0 min 0 min 62 W/m 14,6 km/h (3 Bft)
23.02.2015 11:00 3,9 C 3,3 C 98 % 994,2 hPa 0,0 l/m 0 min 0 min 63 W/m 16,7 km/h (3 Bft)
23.02.2015 11:02 3,9 C 3,3 C 98 % 994,3 hPa 0,0 l/m 0 min 0 min 61 W/m 25,1 km/h (4 Bft)
23.02.2015 11:04 3,9 C 3,3 C 98 % 994,4 hPa 0,0 l/m 0 min 0 min 61 W/m 25,1 km/h (4 Bft)
23.02.2015 11:06 3,9 C 3,3 C 98 % 994,4 hPa 0,0 l/m 0 min 0 min 58 W/m 20,9 km/h (4 Bft)
23.02.2015 11:08 4,0 C 3,3 C 98 % 994,3 hPa 0,0 l/m 0 min 0 min 58 W/m 23,0 km/h (4 Bft)
23.02.2015 11:10 4,0 C 3,3 C 98 % 994,2 hPa 0,0 l/m 0 min 0 min 56 W/m 23,0 km/h (4 Bft)
23.02.2015 11:12 4,0 C 3,3 C 98 % 994,3 hPa 0,0 l/m 0 min 0 min 56 W/m 25,1 km/h (4 Bft)
23.02.2015 11:14 4,1 C 3,3 C 98 % 994,3 hPa 0,0 l/m 0 min 0 min 57 W/m 23,0 km/h (4 Bft)
23.02.2015 11:16 4,1 C 3,3 C 98 % 994,2 hPa 0,0 l/m 0 min 0 min 57 W/m 14,6 km/h (3 Bft)
23.02.2015 11:18 4,1 C 3,3 C 98 % 994,2 hPa 0,0 l/m 0 min 0 min 52 W/m 23,0 km/h (4 Bft)
23.02.2015 11:20 4,1 C 3,3 C 98 % 994,3 hPa 0,0 l/m 0 min 0 min 59 W/m 20,9 km/h (4 Bft)
23.02.2015 11:22 4,2 C 3,3 C 98 % 994,3 hPa 0,0 l/m 0 min 0 min 66 W/m 16,7 km/h (3 Bft)
23.02.2015 11:24 4,2 C 3,3 C 98 % 994,2 hPa 0,0 l/m 0 min 0 min 60 W/m 20,9 km/h (4 Bft)
23.02.2015 11:26 4,2 C 3,3 C 98 % 994,1 hPa 0,0 l/m 0 min 0 min 63 W/m 16,7 km/h (3 Bft)
23.02.2015 11:28 4,2 C 3,3 C 98 % 994,0 hPa 0,0 l/m 0 min 0 min 69 W/m 20,9 km/h (4 Bft)
23.02.2015 11:30 4,2 C 3,9 C 98 % 994,2 hPa 0,0 l/m 0 min 0 min 75 W/m 14,6 km/h (3 Bft)
23.02.2015 11:32 4,2 C 3,9 C 98 % 994,4 hPa 0,0 l/m 0 min 0 min 78 W/m 23,0 km/h (4 Bft)
23.02.2015 11:34 4,3 C 3,9 C 98 % 994,3 hPa 0,0 l/m 0 min 0 min 100 W/m 16,7 km/h (3 Bft)
23.02.2015 11:36 4,3 C 3,9 C 98 % 994,3 hPa 0,0 l/m 0 min 0 min 118 W/m 25,1 km/h (4 Bft)
23.02.2015 11:38 4,3 C 3,9 C 98 % 994,4 hPa 0,0 l/m 0 min 0 min 110 W/m 20,9 km/h (4 Bft)
23.02.2015 11:40 4,4 C 3,9 C 98 % 994,5 hPa 0,0 l/m 0 min 0 min 113 W/m 20,9 km/h (4 Bft)
23.02.2015 11:42 4,4 C 3,9 C 98 % 994,5 hPa 0,0 l/m 0 min 0 min 108 W/m 23,0 km/h (4 Bft)
23.02.2015 11:44 4,4 C 3,9 C 98 % 994,4 hPa 0,0 l/m 0 min 0 min 106 W/m 25,1 km/h (4 Bft)
23.02.2015 11:46 4,5 C 3,9 C 98 % 994,4 hPa 0,0 l/m 0 min 0 min 117 W/m 25,1 km/h (4 Bft)
23.02.2015 11:48 4,6 C 4,4 C 98 % 994,4 hPa 0,0 l/m 0 min 0 min 137 W/m 20,9 km/h (4 Bft)
23.02.2015 11:50 4,6 C 4,4 C 98 % 994,3 hPa 0,0 l/m 0 min 0 min 162 W/m 14,6 km/h (3 Bft)
23.02.2015 11:52 4,7 C 4,4 C 98 % 994,3 hPa 0,0 l/m 0 min 0 min 171 W/m 20,9 km/h (4 Bft)
23.02.2015 11:54 4,7 C 4,4 C 98 % 994,3 hPa 0,0 l/m 0 min 0 min 171 W/m 25,1 km/h (4 Bft)
23.02.2015 11:56 4,8 C 4,4 C 98 % 994,4 hPa 0,0 l/m 0 min 0 min 149 W/m 16,7 km/h (3 Bft)
23.02.2015 11:58 4,8 C 4,4 C 98 % 994,3 hPa 0,0 l/m 0 min 0 min 117 W/m 23,0 km/h (4 Bft)
23.02.2015 12:00 4,9 C 4,4 C 98 % 994,3 hPa 0,0 l/m 0 min 0 min 93 W/m 14,6 km/h (3 Bft)
23.02.2015 12:02 4,9 C 4,4 C 98 % 994,3 hPa 0,0 l/m 0 min 0 min 85 W/m 18,8 km/h (3 Bft)
23.02.2015 12:06 5,0 C 4,4 C 98 % 994,3 hPa 0,0 l/m 0 min 0 min 92 W/m 16,7 km/h (3 Bft)
23.02.2015 12:08 5,0 C 4,4 C 98 % 994,2 hPa 0,0 l/m 0 min 0 min 105 W/m 18,8 km/h (3 Bft)
23.02.2015 12:10 5,1 C 4,4 C 98 % 994,2 hPa 0,0 l/m 0 min 0 min 111 W/m 23,0 km/h (4 Bft)
23.02.2015 12:12 5,1 C 4,4 C 98 % 994,3 hPa 0,0 l/m 0 min 0 min 122 W/m 23,0 km/h (4 Bft)
23.02.2015 12:14 5,1 C 4,4 C 98 % 994,3 hPa 0,0 l/m 0 min 0 min 126 W/m 23,0 km/h (4 Bft)
23.02.2015 12:16 5,2 C 5,0 C 98 % 994,2 hPa 0,0 l/m 0 min 0 min 143 W/m 16,7 km/h (3 Bft)
23.02.2015 12:18 5,2 C 5,0 C 97 % 994,1 hPa 0,0 l/m 0 min 0 min 154 W/m 16,7 km/h (3 Bft)
23.02.2015 12:20 5,2 C 5,0 C 97 % 994,2 hPa 0,0 l/m 0 min 0 min 164 W/m 31,4 km/h (5 Bft)
23.02.2015 12:22 5,3 C 5,0 C 97 % 994,2 hPa 0,0 l/m 0 min 0 min 177 W/m 20,9 km/h (4 Bft)
23.02.2015 12:24 5,4 C 5,0 C 97 % 994,2 hPa 0,0 l/m 0 min 0 min 185 W/m 20,9 km/h (4 Bft)
23.02.2015 12:26 5,4 C 5,6 C 97 % 994,2 hPa 0,0 l/m 0 min 0 min 194 W/m 25,1 km/h (4 Bft)
23.02.2015 12:28 5,5 C 5,6 C 97 % 994,2 hPa 0,0 l/m 0 min 0 min 190 W/m 27,2 km/h (4 Bft)
23.02.2015 12:30 5,6 C 5,6 C 97 % 994,2 hPa 0,0 l/m 0 min 0 min 182 W/m 25,1 km/h (4 Bft)
23.02.2015 12:32 5,6 C 5,6 C 97 % 994,2 hPa 0,0 l/m 0 min 0 min 180 W/m 27,2 km/h (4 Bft)
23.02.2015 12:34 5,7 C 5,6 C 97 % 994,1 hPa 0,0 l/m 0 min 0 min 168 W/m 29,3 km/h (5 Bft)
23.02.2015 12:36 5,7 C 5,6 C 97 % 994,2 hPa 0,0 l/m 0 min 0 min 155 W/m 25,1 km/h (4 Bft)
23.02.2015 12:38 5,7 C 5,6 C 97 % 994,1 hPa 0,0 l/m 0 min 0 min 165 W/m 29,3 km/h (5 Bft)
23.02.2015 12:40 5,8 C 5,6 C 97 % 994,1 hPa 0,0 l/m 0 min 0 min 183 W/m 35,6 km/h (5 Bft)
23.02.2015 12:42 5,8 C 5,6 C 97 % 994,1 hPa 0,0 l/m 0 min 0 min 176 W/m 31,4 km/h (5 Bft)
23.02.2015 12:44 5,9 C 5,6 C 97 % 994,0 hPa 0,0 l/m 0 min 0 min 166 W/m 18,8 km/h (3 Bft)
23.02.2015 12:46 5,9 C 5,6 C 97 % 994,0 hPa 0,0 l/m 0 min 0 min 182 W/m 20,9 km/h (4 Bft)
23.02.2015 12:48 6,0 C 5,6 C 96 % 994,0 hPa 0,0 l/m 0 min 0 min 209 W/m 23,0 km/h (4 Bft)
23.02.2015 12:50 6,1 C 5,6 C 96 % 994,0 hPa 0,0 l/m 0 min 0 min 208 W/m 29,3 km/h (5 Bft)
23.02.2015 12:52 6,1 C 5,6 C 96 % 993,9 hPa 0,0 l/m 0 min 0 min 192 W/m 23,0 km/h (4 Bft)
23.02.2015 12:54 6,2 C 5,6 C 96 % 993,9 hPa 0,0 l/m 0 min 0 min 170 W/m 25,1 km/h (4 Bft)
23.02.2015 12:56 6,2 C 6,1 C 96 % 993,8 hPa 0,0 l/m 0 min 0 min 234 W/m 23,0 km/h (4 Bft)
23.02.2015 12:58 6,2 C 6,1 C 96 % 993,8 hPa 0,0 l/m 0 min 0 min 219 W/m 29,3 km/h (5 Bft)
23.02.2015 13:00 6,3 C 6,1 C 95 % 993,8 hPa 0,0 l/m 0 min 0 min 196 W/m 25,1 km/h (4 Bft)
23.02.2015 13:02 6,4 C 5,6 C 95 % 993,9 hPa 0,0 l/m 0 min 0 min 160 W/m 20,9 km/h (4 Bft)
23.02.2015 13:04 6,4 C 5,6 C 95 % 993,9 hPa 0,0 l/m 0 min 0 min 129 W/m 27,2 km/h (4 Bft)
23.02.2015 13:06 6,4 C 5,6 C 95 % 993,9 hPa 0,0 l/m 0 min 0 min 126 W/m 20,9 km/h (4 Bft)
23.02.2015 13:08 6,4 C 5,6 C 94 % 993,9 hPa 0,0 l/m 0 min 0 min 128 W/m 18,8 km/h (3 Bft)
23.02.2015 13:10 6,4 C 5,6 C 94 % 993,9 hPa 0,0 l/m 0 min 0 min 118 W/m 16,7 km/h (3 Bft)
23.02.2015 13:12 6,4 C 5,6 C 94 % 993,9 hPa 0,0 l/m 0 min 0 min 141 W/m 23,0 km/h (4 Bft)
23.02.2015 13:14 6,4 C 5,6 C 93 % 993,8 hPa 0,0 l/m 0 min 0 min 168 W/m 27,2 km/h (4 Bft)
23.02.2015 13:16 6,4 C 5,6 C 93 % 993,8 hPa 0,0 l/m 0 min 0 min 171 W/m 33,5 km/h (5 Bft)
23.02.2015 13:18 6,4 C 5,6 C 93 % 993,9 hPa 0,0 l/m 0 min 0 min 153 W/m 29,3 km/h (5 Bft)
23.02.2015 13:20 6,4 C 5,6 C 93 % 993,9 hPa 0,0 l/m 0 min 0 min 133 W/m 29,3 km/h (5 Bft)
23.02.2015 13:22 6,5 C 5,6 C 93 % 993,9 hPa 0,0 l/m 0 min 0 min 156 W/m 27,2 km/h (4 Bft)
23.02.2015 13:24 6,5 C 6,1 C 92 % 993,9 hPa 0,0 l/m 0 min 0 min 208 W/m 27,2 km/h (4 Bft)
23.02.2015 13:26 6,5 C 6,1 C 92 % 993,9 hPa 0,0 l/m 0 min 0 min 209 W/m 18,8 km/h (3 Bft)
23.02.2015 13:28 6,6 C 6,1 C 92 % 993,9 hPa 0,0 l/m 0 min 0 min 179 W/m 23,0 km/h (4 Bft)
23.02.2015 13:30 6,6 C 6,1 C 92 % 993,9 hPa 0,0 l/m 0 min 0 min 171 W/m 18,8 km/h (3 Bft)
23.02.2015 13:32 6,7 C 6,1 C 92 % 994,0 hPa 0,0 l/m 0 min 0 min 163 W/m 16,7 km/h (3 Bft)
23.02.2015 13:34 6,7 C 6,1 C 92 % 994,0 hPa 0,0 l/m 0 min 0 min 181 W/m 23,0 km/h (4 Bft)
23.02.2015 13:36 6,7 C 6,7 C 92 % 994,0 hPa 0,0 l/m 0 min 0 min 210 W/m 16,7 km/h (3 Bft)
23.02.2015 13:38 6,8 C 6,7 C 92 % 994,1 hPa 0,0 l/m 2 min 0 min 258 W/m 23,0 km/h (4 Bft)
23.02.2015 13:40 6,8 C 6,7 C 92 % 994,0 hPa 0,0 l/m 2 min 0 min 298 W/m 18,8 km/h (3 Bft)
23.02.2015 13:42 6,9 C 7,2 C 91 % 994,0 hPa 0,0 l/m 2 min 0 min 377 W/m 23,0 km/h (4 Bft)
23.02.2015 13:44 7,0 C 7,2 C 91 % 994,1 hPa 0,0 l/m 2 min 0 min 555 W/m 27,2 km/h (4 Bft)
23.02.2015 13:46 7,1 C 6,7 C 92 % 994,0 hPa 0,0 l/m 2 min 0 min 496 W/m 25,1 km/h (4 Bft)
23.02.2015 13:48 7,2 C 6,7 C 91 % 994,0 hPa 0,0 l/m 2 min 0 min 480 W/m 29,3 km/h (5 Bft)
23.02.2015 13:50 7,3 C 6,7 C 91 % 994,0 hPa 0,0 l/m 2 min 0 min 478 W/m 25,1 km/h (4 Bft)
23.02.2015 13:52 7,4 C 6,7 C 91 % 994,1 hPa 0,0 l/m 2 min 0 min 486 W/m 29,3 km/h (5 Bft)
23.02.2015 13:54 7,6 C 6,7 C 90 % 994,1 hPa 0,0 l/m 2 min 0 min 511 W/m 25,1 km/h (4 Bft)
23.02.2015 13:56 7,7 C 6,7 C 90 % 994,1 hPa 0,0 l/m 2 min 0 min 493 W/m 29,3 km/h (5 Bft)
23.02.2015 13:58 7,8 C 6,7 C 90 % 994,1 hPa 0,0 l/m 2 min 0 min 467 W/m 31,4 km/h (5 Bft)
23.02.2015 14:00 7,9 C 7,2 C 89 % 994,1 hPa 0,0 l/m 2 min 0 min 315 W/m 23,0 km/h (4 Bft)
23.02.2015 14:02 7,9 C 7,2 C 88 % 994,1 hPa 0,0 l/m 2 min 0 min 442 W/m 25,1 km/h (4 Bft)
23.02.2015 14:04 8,1 C 7,2 C 88 % 994,1 hPa 0,0 l/m 2 min 0 min 485 W/m 20,9 km/h (4 Bft)
23.02.2015 14:06 8,2 C 7,2 C 87 % 994,1 hPa 0,0 l/m 2 min 0 min 529 W/m 27,2 km/h (4 Bft)
23.02.2015 14:08 8,2 C 7,2 C 87 % 994,1 hPa 0,0 l/m 2 min 0 min 502 W/m 31,4 km/h (5 Bft)
23.02.2015 14:10 8,3 C 7,2 C 87 % 994,0 hPa 0,0 l/m 2 min 0 min 460 W/m 20,9 km/h (4 Bft)
23.02.2015 14:12 8,4 C 7,2 C 86 % 994,0 hPa 0,0 l/m 2 min 0 min 319 W/m 20,9 km/h (4 Bft)
23.02.2015 14:14 8,4 C 7,2 C 86 % 994,0 hPa 0,0 l/m 2 min 0 min 320 W/m 18,8 km/h (3 Bft)
23.02.2015 14:16 8,4 C 6,7 C 85 % 994,0 hPa 0,0 l/m 2 min 0 min 244 W/m 29,3 km/h (5 Bft)
23.02.2015 14:18 8,4 C 6,7 C 85 % 994,0 hPa 0,0 l/m 2 min 0 min 479 W/m 29,3 km/h (5 Bft)
23.02.2015 14:20 8,5 C 7,2 C 84 % 993,9 hPa 0,0 l/m 2 min 0 min 440 W/m 27,2 km/h (4 Bft)
23.02.2015 14:22 8,6 C 7,2 C 84 % 993,9 hPa 0,0 l/m 2 min 0 min 429 W/m 23,0 km/h (4 Bft)
23.02.2015 14:24 8,6 C 7,2 C 84 % 993,8 hPa 0,0 l/m 2 min 0 min 423 W/m 25,1 km/h (4 Bft)
23.02.2015 14:26 8,7 C 7,2 C 84 % 993,8 hPa 0,0 l/m 2 min 0 min 425 W/m 27,2 km/h (4 Bft)
23.02.2015 14:28 8,7 C 7,2 C 83 % 993,8 hPa 0,0 l/m 2 min 0 min 418 W/m 29,3 km/h (5 Bft)
23.02.2015 14:30 8,7 C 7,2 C 82 % 993,9 hPa 0,0 l/m 2 min 0 min 417 W/m 27,2 km/h (4 Bft)
23.02.2015 14:32 8,8 C 7,2 C 82 % 993,9 hPa 0,0 l/m 2 min 0 min 412 W/m 29,3 km/h (5 Bft)
23.02.2015 14:34 8,8 C 7,2 C 82 % 993,9 hPa 0,0 l/m 2 min 0 min 409 W/m 33,5 km/h (5 Bft)
23.02.2015 14:36 8,9 C 7,2 C 81 % 994,0 hPa 0,0 l/m 2 min 0 min 408 W/m 25,1 km/h (4 Bft)
23.02.2015 14:38 8,9 C 7,2 C 81 % 993,9 hPa 0,0 l/m 2 min 0 min 408 W/m 31,4 km/h (5 Bft)
23.02.2015 14:40 9,0 C 7,2 C 81 % 993,9 hPa 0,0 l/m 2 min 0 min 340 W/m 43,9 km/h (6 Bft)
23.02.2015 14:42 9,0 C 7,2 C 80 % 993,9 hPa 0,0 l/m 0 min 0 min 142 W/m 31,4 km/h (5 Bft)
23.02.2015 14:44 9,0 C 7,2 C 80 % 994,0 hPa 0,0 l/m 2 min 0 min 291 W/m 20,9 km/h (4 Bft)
23.02.2015 14:46 9,0 C 7,8 C 80 % 994,0 hPa 0,0 l/m 2 min 0 min 390 W/m 25,1 km/h (4 Bft)
23.02.2015 14:48 9,1 C 7,8 C 80 % 994,0 hPa 0,0 l/m 2 min 0 min 393 W/m 25,1 km/h (4 Bft)
23.02.2015 14:50 9,1 C 7,8 C 80 % 994,0 hPa 0,0 l/m 2 min 0 min 383 W/m 20,9 km/h (4 Bft)
23.02.2015 14:52 9,1 C 7,2 C 80 % 993,9 hPa 0,0 l/m 2 min 0 min 319 W/m 27,2 km/h (4 Bft)
23.02.2015 14:54 9,1 C 7,2 C 80 % 994,0 hPa 0,0 l/m 0 min 0 min 132 W/m 25,1 km/h (4 Bft)
23.02.2015 14:56 9,0 C 7,2 C 80 % 994,0 hPa 0,0 l/m 0 min 0 min 157 W/m 25,1 km/h (4 Bft)
23.02.2015 14:58 9,0 C 7,8 C 79 % 994,0 hPa 0,0 l/m 0 min 0 min 189 W/m 23,0 km/h (4 Bft)
23.02.2015 15:00 8,9 C 7,8 C 79 % 994,0 hPa 0,0 l/m 2 min 0 min 207 W/m 31,4 km/h (5 Bft)
23.02.2015 15:02 8,9 C 7,8 C 80 % 993,9 hPa 0,0 l/m 2 min 0 min 208 W/m 16,7 km/h (3 Bft)
23.02.2015 15:04 8,9 C 7,8 C 80 % 993,9 hPa 0,0 l/m 0 min 0 min 167 W/m 18,8 km/h (3 Bft)
23.02.2015 15:06 8,9 C 7,8 C 80 % 993,9 hPa 0,0 l/m 0 min 0 min 128 W/m 16,7 km/h (3 Bft)
23.02.2015 15:08 8,9 C 7,2 C 80 % 993,9 hPa 0,0 l/m 0 min 0 min 130 W/m 20,9 km/h (4 Bft)
23.02.2015 15:10 8,9 C 7,8 C 80 % 993,9 hPa 0,0 l/m 0 min 0 min 160 W/m 18,8 km/h (3 Bft)
23.02.2015 15:12 8,9 C 7,8 C 80 % 993,9 hPa 0,0 l/m 0 min 0 min 163 W/m 27,2 km/h (4 Bft)
23.02.2015 15:14 8,9 C 7,8 C 80 % 993,9 hPa 0,0 l/m 2 min 0 min 318 W/m 31,4 km/h (5 Bft)
23.02.2015 15:16 8,9 C 7,8 C 80 % 993,9 hPa 0,0 l/m 2 min 0 min 408 W/m 37,7 km/h (5 Bft)
23.02.2015 15:18 9,0 C 7,8 C 80 % 993,8 hPa 0,0 l/m 2 min 0 min 408 W/m 25,1 km/h (4 Bft)
23.02.2015 15:20 9,1 C 7,8 C 80 % 993,9 hPa 0,0 l/m 2 min 0 min 354 W/m 33,5 km/h (5 Bft)
23.02.2015 15:22 9,1 C 7,8 C 79 % 993,9 hPa 0,0 l/m 2 min 0 min 294 W/m 29,3 km/h (5 Bft)
23.02.2015 15:24 9,1 C 7,2 C 79 % 993,9 hPa 0,0 l/m 2 min 0 min 237 W/m 25,1 km/h (4 Bft)
23.02.2015 15:26 9,1 C 7,2 C 79 % 993,9 hPa 0,0 l/m 0 min 0 min 152 W/m 29,3 km/h (5 Bft)
23.02.2015 15:28 9,1 C 7,2 C 79 % 993,9 hPa 0,0 l/m 0 min 0 min 94 W/m 20,9 km/h (4 Bft)
23.02.2015 15:30 9,1 C 7,2 C 79 % 993,9 hPa 0,0 l/m 0 min 0 min 73 W/m 23,0 km/h (4 Bft)
23.02.2015 15:32 9,1 C 7,2 C 79 % 993,8 hPa 0,0 l/m 0 min 0 min 69 W/m 16,7 km/h (3 Bft)
23.02.2015 15:34 9,1 C 6,7 C 80 % 993,9 hPa 0,0 l/m 0 min 0 min 59 W/m 23,0 km/h (4 Bft)
23.02.2015 15:36 9,0 C 6,7 C 79 % 993,9 hPa 0,0 l/m 0 min 0 min 56 W/m 25,1 km/h (4 Bft)
23.02.2015 15:38 8,9 C 6,7 C 79 % 993,9 hPa 0,0 l/m 0 min 0 min 58 W/m 23,0 km/h (4 Bft)
23.02.2015 15:40 8,8 C 6,7 C 79 % 993,8 hPa 0,0 l/m 0 min 0 min 65 W/m 20,9 km/h (4 Bft)
23.02.2015 15:42 8,7 C 6,7 C 80 % 993,8 hPa 0,0 l/m 0 min 0 min 73 W/m 29,3 km/h (5 Bft)
23.02.2015 15:44 8,7 C 6,7 C 80 % 993,9 hPa 0,0 l/m 0 min 0 min 89 W/m 18,8 km/h (3 Bft)
23.02.2015 15:46 8,6 C 6,7 C 80 % 993,9 hPa 0,0 l/m 0 min 2 min 104 W/m 23,0 km/h (4 Bft)
23.02.2015 15:48 8,6 C 6,7 C 81 % 993,9 hPa 0,0 l/m 0 min 2 min 118 W/m 25,1 km/h (4 Bft)
23.02.2015 15:50 8,5 C 6,7 C 81 % 993,9 hPa 0,0 l/m 0 min 2 min 128 W/m 27,2 km/h (4 Bft)
23.02.2015 15:52 8,5 C 6,1 C 82 % 993,9 hPa 0,0 l/m 0 min 2 min 117 W/m 31,4 km/h (5 Bft)
23.02.2015 15:54 8,4 C 6,1 C 83 % 993,8 hPa 0,0 l/m 0 min 2 min 122 W/m 12,6 km/h (3 Bft)
23.02.2015 15:56 8,4 C 6,1 C 83 % 993,8 hPa 0,0 l/m 0 min 2 min 129 W/m 16,7 km/h (3 Bft)
23.02.2015 15:58 8,4 C 5,6 C 83 % 993,7 hPa 0,0 l/m 0 min 2 min 86 W/m 14,6 km/h (3 Bft)
23.02.2015 16:00 8,3 C 5,6 C 83 % 993,8 hPa 0,0 l/m 0 min 0 min 67 W/m 10,5 km/h (2 Bft)
23.02.2015 16:02 8,3 C 5,6 C 84 % 993,8 hPa 0,0 l/m 0 min 0 min 60 W/m 14,6 km/h (3 Bft)
23.02.2015 16:04 8,3 C 5,0 C 84 % 993,8 hPa 0,0 l/m 0 min 0 min 68 W/m 10,5 km/h (2 Bft)
23.02.2015 16:06 8,2 C 5,0 C 84 % 993,8 hPa 0,0 l/m 0 min 0 min 67 W/m 10,5 km/h (2 Bft)
23.02.2015 16:08 8,2 C 5,6 C 84 % 993,8 hPa 0,0 l/m 0 min 0 min 93 W/m 14,6 km/h (3 Bft)
23.02.2015 16:10 8,1 C 5,6 C 84 % 993,8 hPa 0,0 l/m 0 min 0 min 102 W/m 20,9 km/h (4 Bft)
23.02.2015 16:12 8,1 C 5,6 C 84 % 993,8 hPa 0,0 l/m 0 min 0 min 68 W/m 12,6 km/h (3 Bft)
23.02.2015 16:14 8,0 C 5,6 C 84 % 993,8 hPa 0,0 l/m 0 min 0 min 63 W/m 20,9 km/h (4 Bft)
23.02.2015 16:16 7,9 C 5,6 C 84 % 993,8 hPa 0,0 l/m 0 min 0 min 77 W/m 14,6 km/h (3 Bft)
23.02.2015 16:18 7,9 C 5,6 C 84 % 993,7 hPa 0,0 l/m 0 min 0 min 79 W/m 14,6 km/h (3 Bft)
23.02.2015 16:20 7,9 C 5,6 C 84 % 993,8 hPa 0,0 l/m 0 min 0 min 79 W/m 16,7 km/h (3 Bft)
23.02.2015 16:22 7,9 C 5,6 C 84 % 993,7 hPa 0,0 l/m 0 min 0 min 79 W/m 25,1 km/h (4 Bft)
23.02.2015 16:24 7,8 C 5,6 C 84 % 993,7 hPa 0,0 l/m 0 min 0 min 77 W/m 23,0 km/h (4 Bft)
23.02.2015 16:26 7,8 C 6,1 C 85 % 993,8 hPa 0,0 l/m 0 min 0 min 80 W/m 20,9 km/h (4 Bft)
23.02.2015 16:28 7,8 C 6,1 C 84 % 993,8 hPa 0,0 l/m 0 min 0 min 86 W/m 14,6 km/h (3 Bft)
23.02.2015 16:30 7,8 C 6,1 C 84 % 993,9 hPa 0,0 l/m 0 min 0 min 84 W/m 14,6 km/h (3 Bft)
23.02.2015 16:32 7,8 C 6,1 C 84 % 993,9 hPa 0,0 l/m 0 min 0 min 84 W/m 29,3 km/h (5 Bft)
23.02.2015 16:34 7,8 C 6,1 C 84 % 993,9 hPa 0,0 l/m 0 min 0 min 83 W/m 29,3 km/h (5 Bft)
23.02.2015 16:36 7,8 C 6,1 C 84 % 994,0 hPa 0,0 l/m 0 min 0 min 77 W/m 23,0 km/h (4 Bft)
23.02.2015 16:38 7,8 C 6,1 C 84 % 994,0 hPa 0,0 l/m 0 min 0 min 65 W/m 20,9 km/h (4 Bft)
23.02.2015 16:40 7,8 C 6,1 C 84 % 994,0 hPa 0,0 l/m 0 min 0 min 54 W/m 16,7 km/h (3 Bft)
23.02.2015 16:42 7,9 C 6,1 C 84 % 994,0 hPa 0,0 l/m 0 min 0 min 47 W/m 20,9 km/h (4 Bft)
23.02.2015 16:44 7,9 C 6,1 C 83 % 994,0 hPa 0,0 l/m 0 min 0 min 42 W/m 18,8 km/h (3 Bft)
23.02.2015 16:46 7,9 C 6,1 C 83 % 994,0 hPa 0,0 l/m 0 min 2 min 36 W/m 10,5 km/h (2 Bft)
23.02.2015 16:48 7,9 C 6,1 C 83 % 993,9 hPa 0,0 l/m 0 min 0 min 24 W/m 29,3 km/h (5 Bft)
23.02.2015 16:50 7,8 C 6,1 C 83 % 993,9 hPa 0,0 l/m 0 min 0 min 16 W/m 29,3 km/h (5 Bft)
23.02.2015 16:52 7,8 C 5,6 C 83 % 994,0 hPa 0,0 l/m 0 min 2 min 15 W/m 29,3 km/h (5 Bft)
23.02.2015 16:54 7,8 C 5,6 C 82 % 993,9 hPa 0,0 l/m 0 min 0 min 15 W/m 25,1 km/h (4 Bft)
23.02.2015 16:56 7,8 C 5,6 C 82 % 993,9 hPa 0,0 l/m 0 min 2 min 13 W/m 18,8 km/h (3 Bft)
23.02.2015 16:58 7,8 C 5,6 C 82 % 993,9 hPa 0,0 l/m 0 min 2 min 15 W/m 18,8 km/h (3 Bft)
23.02.2015 17:00 7,8 C 5,6 C 82 % 993,9 hPa 0,0 l/m 0 min 2 min 11 W/m 18,8 km/h (3 Bft)
23.02.2015 17:02 7,7 C 5,6 C 82 % 993,9 hPa 0,0 l/m 0 min 2 min 7 W/m 23,0 km/h (4 Bft)
23.02.2015 17:04 7,7 C 5,6 C 83 % 994,1 hPa 0,0 l/m 0 min 2 min 5 W/m 12,6 km/h (3 Bft)
23.02.2015 17:06 7,7 C 5,0 C 83 % 994,1 hPa 0,0 l/m 0 min 2 min 0 W/m 14,6 km/h (3 Bft)
23.02.2015 17:08 7,7 C 5,0 C 83 % 994,3 hPa 0,0 l/m 0 min 2 min 0 W/m 16,7 km/h (3 Bft)
23.02.2015 17:10 7,7 C 5,0 C 84 % 994,4 hPa 0,2 l/m 0 min 2 min 0 W/m 20,9 km/h (4 Bft)
23.02.2015 17:12 7,7 C 4,4 C 84 % 994,6 hPa 0,2 l/m 0 min 2 min 0 W/m 60,7 km/h (7 Bft)
23.02.2015 17:14 7,4 C 4,4 C 85 % 995,0 hPa 0,4 l/m 0 min 2 min 0 W/m 66,9 km/h (8 Bft)
23.02.2015 17:16 7,1 C 3,3 C 85 % 995,3 hPa 0,6 l/m 0 min 2 min 0 W/m 52,3 km/h (7 Bft)
23.02.2015 17:18 6,7 C 3,3 C 85 % 995,1 hPa 0,4 l/m 0 min 2 min 1 W/m 37,7 km/h (5 Bft)
23.02.2015 17:20 6,3 C 3,3 C 85 % 995,0 hPa 0,2 l/m 0 min 2 min 7 W/m 31,4 km/h (5 Bft)
23.02.2015 17:22 6,1 C 2,8 C 86 % 995,0 hPa 0,2 l/m 0 min 2 min 10 W/m 20,9 km/h (4 Bft)
23.02.2015 17:24 5,8 C 2,8 C 86 % 994,8 hPa 0,2 l/m 0 min 0 min 22 W/m 25,1 km/h (4 Bft)
23.02.2015 17:26 5,7 C 2,8 C 87 % 994,6 hPa 0,0 l/m 0 min 0 min 34 W/m 29,3 km/h (5 Bft)
23.02.2015 17:28 5,6 C 3,3 C 88 % 994,7 hPa 0,0 l/m 0 min 0 min 34 W/m 20,9 km/h (4 Bft)
23.02.2015 17:30 5,4 C 2,8 C 88 % 994,6 hPa 0,0 l/m 0 min 0 min 34 W/m 16,7 km/h (3 Bft)
23.02.2015 17:32 5,4 C 2,8 C 89 % 994,5 hPa 0,0 l/m 0 min 0 min 33 W/m 14,6 km/h (3 Bft)
23.02.2015 17:34 5,3 C 2,8 C 89 % 994,4 hPa 0,0 l/m 0 min 0 min 30 W/m 14,6 km/h (3 Bft)
23.02.2015 17:36 5,2 C 2,8 C 89 % 994,4 hPa 0,0 l/m 0 min 0 min 28 W/m 12,6 km/h (3 Bft)
23.02.2015 17:38 5,2 C 2,8 C 89 % 994,3 hPa 0,0 l/m 0 min 0 min 25 W/m 10,5 km/h (2 Bft)
23.02.2015 17:40 5,1 C 2,8 C 90 % 994,3 hPa 0,0 l/m 0 min 0 min 22 W/m 12,6 km/h (3 Bft)
23.02.2015 17:42 5,1 C 2,8 C 90 % 994,4 hPa 0,0 l/m 0 min 0 min 19 W/m 12,6 km/h (3 Bft)
23.02.2015 17:44 4,9 C 2,8 C 90 % 994,4 hPa 0,0 l/m 0 min 0 min 17 W/m 14,6 km/h (3 Bft)
23.02.2015 17:46 4,9 C 2,8 C 90 % 994,4 hPa 0,0 l/m 2 min 0 min 16 W/m 14,6 km/h (3 Bft)
23.02.2015 17:48 4,8 C 2,8 C 90 % 994,5 hPa 0,0 l/m 2 min 0 min 14 W/m 10,5 km/h (2 Bft)
23.02.2015 17:50 4,8 C 2,8 C 90 % 994,4 hPa 0,0 l/m 2 min 0 min 13 W/m 10,5 km/h (2 Bft)
23.02.2015 17:52 4,7 C 2,2 C 91 % 994,5 hPa 0,0 l/m 2 min 0 min 11 W/m 12,6 km/h (3 Bft)
23.02.2015 17:54 4,7 C 2,2 C 91 % 994,5 hPa 0,0 l/m 0 min 0 min 11 W/m 10,5 km/h (2 Bft)
23.02.2015 17:56 4,7 C 2,2 C 91 % 994,6 hPa 0,0 l/m 0 min 0 min 11 W/m 10,5 km/h (2 Bft)
23.02.2015 17:58 4,6 C 2,2 C 91 % 994,5 hPa 0,0 l/m 0 min 0 min 9 W/m 12,6 km/h (3 Bft)
23.02.2015 18:00 4,6 C 2,2 C 91 % 994,6 hPa 0,0 l/m 0 min 0 min 9 W/m 8,4 km/h (2 Bft)
23.02.2015 18:02 4,6 C 2,2 C 91 % 994,6 hPa 0,0 l/m 0 min 0 min 8 W/m 8,4 km/h (2 Bft)
23.02.2015 18:06 4,5 C 2,2 C 91 % 994,9 hPa 0,0 l/m 0 min 0 min 7 W/m 10,5 km/h (2 Bft)
23.02.2015 18:08 4,4 C 2,2 C 91 % 994,9 hPa 0,0 l/m 0 min 0 min 5 W/m 10,5 km/h (2 Bft)
23.02.2015 18:10 4,4 C 2,2 C 91 % 994,9 hPa 0,0 l/m 0 min 0 min 4 W/m 8,4 km/h (2 Bft)
23.02.2015 18:12 4,4 C 2,2 C 91 % 994,9 hPa 0,0 l/m 0 min 0 min 0 W/m 12,6 km/h (3 Bft)
23.02.2015 18:14 4,3 C 2,2 C 91 % 994,9 hPa 0,0 l/m 0 min 0 min 0 W/m 10,5 km/h (2 Bft)
23.02.2015 18:16 4,3 C 2,2 C 91 % 994,9 hPa 0,0 l/m 0 min 0 min 0 W/m 14,6 km/h (3 Bft)
23.02.2015 18:18 4,2 C 2,2 C 92 % 994,9 hPa 0,0 l/m 0 min 0 min 0 W/m 12,6 km/h (3 Bft)
23.02.2015 18:20 4,2 C 2,2 C 92 % 994,9 hPa 0,0 l/m 0 min 0 min 0 W/m 12,6 km/h (3 Bft)
23.02.2015 18:22 4,2 C 2,2 C 92 % 995,0 hPa 0,0 l/m 0 min 0 min 0 W/m 8,4 km/h (2 Bft)
23.02.2015 18:24 4,2 C 2,2 C 92 % 995,0 hPa 0,0 l/m 0 min 0 min 0 W/m 12,6 km/h (3 Bft)
23.02.2015 18:26 4,2 C 2,2 C 92 % 994,9 hPa 0,0 l/m 0 min 0 min 0 W/m 12,6 km/h (3 Bft)
23.02.2015 18:28 4,1 C 2,2 C 92 % 995,0 hPa 0,0 l/m 0 min 0 min 0 W/m 8,4 km/h (2 Bft)
23.02.2015 18:30 4,1 C 2,2 C 92 % 995,0 hPa 0,0 l/m 0 min 0 min 0 W/m 14,6 km/h (3 Bft)
23.02.2015 18:32 4,1 C 2,2 C 92 % 995,0 hPa 0,0 l/m 0 min 0 min 0 W/m 16,7 km/h (3 Bft)
23.02.2015 18:34 4,1 C 2,2 C 92 % 995,0 hPa 0,0 l/m 0 min 0 min 0 W/m 16,7 km/h (3 Bft)
23.02.2015 18:36 4,1 C 2,2 C 93 % 995,1 hPa 0,0 l/m 0 min 0 min 0 W/m 16,7 km/h (3 Bft)
23.02.2015 18:38 4,1 C 2,2 C 93 % 995,1 hPa 0,0 l/m 0 min 0 min 0 W/m 14,6 km/h (3 Bft)
23.02.2015 18:40 4,1 C 2,2 C 93 % 995,1 hPa 0,0 l/m 0 min 0 min 0 W/m 14,6 km/h (3 Bft)
23.02.2015 18:42 4,1 C 2,2 C 93 % 995,2 hPa 0,0 l/m 0 min 0 min 0 W/m 16,7 km/h (3 Bft)
23.02.2015 18:44 4,1 C 2,2 C 93 % 995,2 hPa 0,0 l/m 0 min 0 min 0 W/m 14,6 km/h (3 Bft)
23.02.2015 18:46 4,1 C 2,2 C 93 % 995,2 hPa 0,0 l/m 0 min 0 min 0 W/m 12,6 km/h (3 Bft)
23.02.2015 18:48 4,1 C 2,2 C 93 % 995,3 hPa 0,0 l/m 0 min 0 min 0 W/m 18,8 km/h (3 Bft)
23.02.2015 18:50 4,1 C 2,2 C 93 % 995,3 hPa 0,0 l/m 0 min 0 min 0 W/m 23,0 km/h (4 Bft)
23.02.2015 18:52 4,1 C 2,2 C 93 % 995,3 hPa 0,0 l/m 0 min 0 min 0 W/m 14,6 km/h (3 Bft)
23.02.2015 18:54 4,1 C 2,2 C 93 % 995,3 hPa 0,0 l/m 0 min 0 min 0 W/m 18,8 km/h (3 Bft)
23.02.2015 18:56 4,1 C 2,2 C 94 % 995,5 hPa 0,0 l/m 0 min 0 min 0 W/m 16,7 km/h (3 Bft)
23.02.2015 18:58 4,0 C 2,2 C 94 % 995,5 hPa 0,0 l/m 0 min 0 min 0 W/m 16,7 km/h (3 Bft)
23.02.2015 19:00 4,1 C 2,2 C 94 % 995,3 hPa 0,0 l/m 0 min 0 min 0 W/m 18,8 km/h (3 Bft)
23.02.2015 19:02 4,1 C 2,2 C 94 % 995,3 hPa 0,0 l/m 0 min 0 min 0 W/m 16,7 km/h (3 Bft)
23.02.2015 19:04 4,0 C 2,2 C 94 % 995,4 hPa 0,0 l/m 0 min 0 min 0 W/m 10,5 km/h (2 Bft)
23.02.2015 19:06 4,0 C 2,2 C 94 % 995,3 hPa 0,0 l/m 0 min 0 min 0 W/m 14,6 km/h (3 Bft)
23.02.2015 19:08 4,0 C 2,2 C 94 % 995,3 hPa 0,0 l/m 0 min 0 min 0 W/m 14,6 km/h (3 Bft)
23.02.2015 19:10 4,0 C 2,2 C 94 % 995,3 hPa 0,0 l/m 0 min 0 min 0 W/m 16,7 km/h (3 Bft)
23.02.2015 19:12 4,0 C 2,2 C 94 % 995,5 hPa 0,0 l/m 0 min 0 min 0 W/m 18,8 km/h (3 Bft)
23.02.2015 19:14 4,0 C 2,2 C 94 % 995,5 hPa 0,0 l/m 0 min 0 min 0 W/m 12,6 km/h (3 Bft)
23.02.2015 19:16 4,0 C 2,2 C 94 % 995,4 hPa 0,0 l/m 0 min 0 min 0 W/m 16,7 km/h (3 Bft)
23.02.2015 19:18 4,0 C 2,2 C 94 % 995,4 hPa 0,0 l/m 0 min 0 min 0 W/m 16,7 km/h (3 Bft)
23.02.2015 19:20 4,0 C 2,2 C 94 % 995,4 hPa 0,0 l/m 0 min 0 min 0 W/m 14,6 km/h (3 Bft)
23.02.2015 19:22 4,0 C 2,2 C 94 % 995,4 hPa 0,0 l/m 0 min 0 min 0 W/m 14,6 km/h (3 Bft)
23.02.2015 19:24 4,0 C 2,2 C 94 % 995,4 hPa 0,0 l/m 0 min 0 min 0 W/m 12,6 km/h (3 Bft)
23.02.2015 19:26 4,0 C 2,2 C 94 % 995,4 hPa 0,0 l/m 0 min 0 min 0 W/m 18,8 km/h (3 Bft)
23.02.2015 19:28 4,0 C 2,2 C 94 % 995,5 hPa 0,0 l/m 0 min 0 min 0 W/m 14,6 km/h (3 Bft)
23.02.2015 19:30 4,0 C 2,2 C 94 % 995,4 hPa 0,0 l/m 0 min 0 min 0 W/m 16,7 km/h (3 Bft)
23.02.2015 19:32 4,0 C 2,2 C 94 % 995,4 hPa 0,0 l/m 0 min 0 min 0 W/m 16,7 km/h (3 Bft)
23.02.2015 19:34 4,0 C 2,2 C 94 % 995,5 hPa 0,0 l/m 0 min 0 min 0 W/m 14,6 km/h (3 Bft)
23.02.2015 19:36 4,0 C 2,8 C 94 % 995,5 hPa 0,0 l/m 0 min 0 min 0 W/m 16,7 km/h (3 Bft)
23.02.2015 19:38 4,1 C 2,8 C 94 % 995,5 hPa 0,0 l/m 0 min 0 min 0 W/m 18,8 km/h (3 Bft)
23.02.2015 19:40 4,1 C 2,8 C 95 % 995,5 hPa 0,0 l/m 0 min 0 min 0 W/m 23,0 km/h (4 Bft)
23.02.2015 19:42 4,1 C 2,8 C 95 % 995,4 hPa 0,0 l/m 0 min 0 min 0 W/m 16,7 km/h (3 Bft)
23.02.2015 19:44 4,1 C 2,8 C 95 % 995,5 hPa 0,0 l/m 0 min 0 min 0 W/m 16,7 km/h (3 Bft)
23.02.2015 19:46 4,1 C 2,8 C 95 % 995,5 hPa 0,0 l/m 0 min 0 min 0 W/m 18,8 km/h (3 Bft)
23.02.2015 19:48 4,1 C 2,8 C 95 % 995,6 hPa 0,0 l/m 0 min 0 min 0 W/m 16,7 km/h (3 Bft)
23.02.2015 19:50 4,1 C 2,8 C 95 % 995,6 hPa 0,0 l/m 0 min 0 min 0 W/m 23,0 km/h (4 Bft)
23.02.2015 19:52 4,1 C 2,8 C 95 % 995,6 hPa 0,0 l/m 0 min 0 min 0 W/m 23,0 km/h (4 Bft)
23.02.2015 19:54 4,2 C 2,8 C 95 % 995,6 hPa 0,0 l/m 0 min 0 min 0 W/m 16,7 km/h (3 Bft)
23.02.2015 19:56 4,2 C 2,8 C 95 % 995,6 hPa 0,0 l/m 0 min 0 min 0 W/m 18,8 km/h (3 Bft)
23.02.2015 19:58 4,2 C 2,8 C 95 % 995,6 hPa 0,0 l/m 0 min 0 min 0 W/m 18,8 km/h (3 Bft)
23.02.2015 20:00 4,2 C 2,8 C 95 % 995,7 hPa 0,0 l/m 0 min 0 min 0 W/m 16,7 km/h (3 Bft)
23.02.2015 20:02 4,2 C 2,8 C 95 % 995,6 hPa 0,0 l/m 0 min 0 min 0 W/m 16,7 km/h (3 Bft)
23.02.2015 20:04 4,2 C 2,8 C 95 % 995,6 hPa 0,0 l/m 0 min 0 min 0 W/m 18,8 km/h (3 Bft)
23.02.2015 20:06 4,2 C 2,8 C 95 % 995,6 hPa 0,0 l/m 0 min 0 min 0 W/m 16,7 km/h (3 Bft)
23.02.2015 20:08 4,2 C 2,8 C 95 % 995,7 hPa 0,0 l/m 0 min 0 min 0 W/m 20,9 km/h (4 Bft)
23.02.2015 20:10 4,2 C 2,8 C 95 % 995,7 hPa 0,0 l/m 0 min 0 min 0 W/m 27,2 km/h (4 Bft)
23.02.2015 20:12 4,2 C 2,8 C 95 % 995,7 hPa 0,0 l/m 0 min 0 min 0 W/m 16,7 km/h (3 Bft)
23.02.2015 20:14 4,2 C 2,8 C 95 % 995,7 hPa 0,0 l/m 0 min 0 min 0 W/m 18,8 km/h (3 Bft)
23.02.2015 20:16 4,3 C 2,8 C 95 % 995,7 hPa 0,0 l/m 0 min 0 min 0 W/m 16,7 km/h (3 Bft)
23.02.2015 20:18 4,3 C 2,8 C 95 % 995,7 hPa 0,0 l/m 0 min 0 min 0 W/m 20,9 km/h (4 Bft)
23.02.2015 20:20 4,3 C 2,8 C 95 % 995,7 hPa 0,0 l/m 0 min 0 min 0 W/m 18,8 km/h (3 Bft)
23.02.2015 20:22 4,3 C 2,8 C 95 % 995,7 hPa 0,0 l/m 0 min 0 min 0 W/m 16,7 km/h (3 Bft)
23.02.2015 20:24 4,3 C 2,8 C 95 % 995,7 hPa 0,0 l/m 0 min 0 min 0 W/m 20,9 km/h (4 Bft)
23.02.2015 20:26 4,3 C 2,8 C 95 % 995,8 hPa 0,0 l/m 0 min 0 min 0 W/m 16,7 km/h (3 Bft)
23.02.2015 20:28 4,3 C 2,8 C 95 % 995,8 hPa 0,0 l/m 0 min 0 min 0 W/m 14,6 km/h (3 Bft)
23.02.2015 20:30 4,3 C 2,8 C 95 % 995,9 hPa 0,0 l/m 0 min 0 min 0 W/m 20,9 km/h (4 Bft)
23.02.2015 20:32 4,3 C 2,8 C 95 % 995,9 hPa 0,0 l/m 0 min 0 min 0 W/m 20,9 km/h (4 Bft)
23.02.2015 20:34 4,3 C 2,8 C 95 % 995,8 hPa 0,0 l/m 0 min 0 min 0 W/m 20,9 km/h (4 Bft)
23.02.2015 20:36 4,3 C 2,8 C 95 % 995,8 hPa 0,0 l/m 0 min 0 min 0 W/m 14,6 km/h (3 Bft)
23.02.2015 20:38 4,3 C 2,8 C 95 % 996,0 hPa 0,0 l/m 0 min 0 min 0 W/m 16,7 km/h (3 Bft)
23.02.2015 20:40 4,3 C 2,8 C 95 % 996,0 hPa 0,0 l/m 0 min 0 min 0 W/m 12,6 km/h (3 Bft)
23.02.2015 20:42 4,3 C 2,8 C 95 % 995,8 hPa 0,0 l/m 0 min 0 min 0 W/m 14,6 km/h (3 Bft)
23.02.2015 20:44 4,3 C 2,8 C 95 % 995,8 hPa 0,0 l/m 0 min 0 min 0 W/m 10,5 km/h (2 Bft)
23.02.2015 20:46 4,3 C 2,8 C 95 % 995,8 hPa 0,0 l/m 0 min 0 min 0 W/m 16,7 km/h (3 Bft)
23.02.2015 20:48 4,3 C 2,8 C 95 % 995,8 hPa 0,0 l/m 0 min 0 min 0 W/m 20,9 km/h (4 Bft)
23.02.2015 20:50 4,3 C 2,8 C 95 % 995,8 hPa 0,0 l/m 0 min 0 min 0 W/m 16,7 km/h (3 Bft)
23.02.2015 20:52 4,3 C 2,8 C 95 % 995,7 hPa 0,0 l/m 0 min 0 min 0 W/m 12,6 km/h (3 Bft)
23.02.2015 20:54 4,3 C 2,8 C 95 % 995,9 hPa 0,0 l/m 0 min 0 min 0 W/m 16,7 km/h (3 Bft)
23.02.2015 20:56 4,3 C 2,8 C 95 % 996,0 hPa 0,0 l/m 0 min 0 min 0 W/m 12,6 km/h (3 Bft)
23.02.2015 20:58 4,3 C 2,8 C 95 % 996,0 hPa 0,0 l/m 0 min 0 min 0 W/m 14,6 km/h (3 Bft)
23.02.2015 21:00 4,3 C 2,8 C 95 % 995,9 hPa 0,0 l/m 0 min 0 min 0 W/m 14,6 km/h (3 Bft)
23.02.2015 21:02 4,3 C 2,8 C 95 % 995,9 hPa 0,0 l/m 0 min 0 min 0 W/m 18,8 km/h (3 Bft)
23.02.2015 21:04 4,3 C 2,8 C 95 % 996,0 hPa 0,0 l/m 0 min 0 min 0 W/m 12,6 km/h (3 Bft)
23.02.2015 21:06 4,3 C 2,8 C 95 % 995,9 hPa 0,0 l/m 0 min 0 min 0 W/m 16,7 km/h (3 Bft)
23.02.2015 21:08 4,3 C 2,8 C 95 % 995,9 hPa 0,0 l/m 0 min 0 min 0 W/m 18,8 km/h (3 Bft)
23.02.2015 21:10 4,3 C 2,2 C 95 % 995,9 hPa 0,0 l/m 0 min 0 min 0 W/m 16,7 km/h (3 Bft)
23.02.2015 21:12 4,3 C 2,8 C 95 % 996,0 hPa 0,0 l/m 0 min 0 min 0 W/m 20,9 km/h (4 Bft)
23.02.2015 21:14 4,3 C 2,2 C 94 % 996,0 hPa 0,0 l/m 0 min 0 min 0 W/m 10,5 km/h (2 Bft)
23.02.2015 21:16 4,2 C 2,2 C 94 % 995,9 hPa 0,0 l/m 0 min 0 min 0 W/m 10,5 km/h (2 Bft)
23.02.2015 21:18 4,2 C 2,2 C 94 % 996,0 hPa 0,0 l/m 0 min 0 min 0 W/m 20,9 km/h (4 Bft)
23.02.2015 21:20 4,2 C 2,2 C 94 % 996,0 hPa 0,0 l/m 0 min 0 min 0 W/m 14,6 km/h (3 Bft)
23.02.2015 21:22 4,2 C 2,2 C 94 % 996,1 hPa 0,0 l/m 0 min 0 min 0 W/m 8,4 km/h (2 Bft)
23.02.2015 21:24 4,2 C 2,2 C 94 % 996,1 hPa 0,0 l/m 0 min 0 min 0 W/m 10,5 km/h (2 Bft)
23.02.2015 21:26 4,2 C 2,2 C 94 % 996,1 hPa 0,0 l/m 0 min 0 min 0 W/m 10,5 km/h (2 Bft)
23.02.2015 21:28 4,2 C 2,2 C 94 % 996,1 hPa 0,0 l/m 0 min 0 min 0 W/m 12,6 km/h (3 Bft)
23.02.2015 21:30 4,2 C 2,2 C 94 % 996,1 hPa 0,0 l/m 0 min 0 min 0 W/m 12,6 km/h (3 Bft)
23.02.2015 21:32 4,1 C 2,2 C 94 % 996,1 hPa 0,0 l/m 0 min 0 min 0 W/m 14,6 km/h (3 Bft)
23.02.2015 21:34 4,1 C 2,2 C 94 % 996,1 hPa 0,0 l/m 0 min 0 min 0 W/m 14,6 km/h (3 Bft)
23.02.2015 21:36 4,1 C 2,2 C 94 % 996,1 hPa 0,0 l/m 0 min 0 min 0 W/m 14,6 km/h (3 Bft)
23.02.2015 21:38 4,1 C 2,2 C 94 % 996,2 hPa 0,0 l/m 0 min 0 min 0 W/m 12,6 km/h (3 Bft)
23.02.2015 21:40 4,1 C 2,2 C 94 % 996,2 hPa 0,0 l/m 0 min 0 min 0 W/m 14,6 km/h (3 Bft)
23.02.2015 21:42 4,1 C 2,2 C 94 % 996,3 hPa 0,0 l/m 0 min 0 min 0 W/m 20,9 km/h (4 Bft)
23.02.2015 21:44 4,0 C 2,2 C 94 % 996,4 hPa 0,0 l/m 0 min 0 min 0 W/m 18,8 km/h (3 Bft)
23.02.2015 21:46 4,0 C 2,2 C 94 % 996,3 hPa 0,0 l/m 0 min 0 min 0 W/m 16,7 km/h (3 Bft)
23.02.2015 21:48 4,0 C 2,2 C 94 % 996,4 hPa 0,0 l/m 0 min 0 min 0 W/m 23,0 km/h (4 Bft)
23.02.2015 21:50 4,0 C 2,2 C 94 % 996,5 hPa 0,0 l/m 0 min 0 min 0 W/m 16,7 km/h (3 Bft)
23.02.2015 21:52 4,0 C 2,2 C 94 % 996,4 hPa 0,0 l/m 0 min 0 min 0 W/m 18,8 km/h (3 Bft)
23.02.2015 21:54 4,0 C 2,2 C 94 % 996,5 hPa 0,0 l/m 0 min 0 min 0 W/m 29,3 km/h (5 Bft)
23.02.2015 21:56 4,0 C 2,2 C 94 % 996,6 hPa 0,0 l/m 0 min 0 min 0 W/m 27,2 km/h (4 Bft)
23.02.2015 21:58 4,0 C 2,2 C 94 % 996,6 hPa 0,0 l/m 0 min 0 min 0 W/m 14,6 km/h (3 Bft)
23.02.2015 22:00 4,0 C 2,2 C 94 % 996,7 hPa 0,0 l/m 0 min 0 min 0 W/m 16,7 km/h (3 Bft)
23.02.2015 22:02 4,0 C 2,2 C 94 % 996,7 hPa 0,0 l/m 0 min 0 min 0 W/m 25,1 km/h (4 Bft)
23.02.2015 22:04 4,0 C 2,2 C 94 % 996,6 hPa 0,0 l/m 0 min 0 min 0 W/m 25,1 km/h (4 Bft)
23.02.2015 22:06 4,0 C 2,2 C 94 % 996,6 hPa 0,0 l/m 0 min 0 min 0 W/m 27,2 km/h (4 Bft)
23.02.2015 22:08 4,0 C 2,2 C 94 % 996,6 hPa 0,0 l/m 0 min 0 min 0 W/m 18,8 km/h (3 Bft)
23.02.2015 22:10 4,0 C 2,2 C 94 % 996,6 hPa 0,0 l/m 0 min 0 min 0 W/m 20,9 km/h (4 Bft)
23.02.2015 22:12 3,9 C 2,2 C 93 % 996,6 hPa 0,0 l/m 0 min 0 min 0 W/m 27,2 km/h (4 Bft)
23.02.2015 22:14 3,9 C 2,2 C 93 % 996,6 hPa 0,0 l/m 0 min 0 min 0 W/m 27,2 km/h (4 Bft)
23.02.2015 22:16 3,9 C 2,2 C 93 % 996,7 hPa 0,0 l/m 0 min 0 min 0 W/m 27,2 km/h (4 Bft)
23.02.2015 22:18 3,9 C 2,2 C 93 % 996,7 hPa 0,0 l/m 0 min 0 min 0 W/m 20,9 km/h (4 Bft)
23.02.2015 22:20 3,9 C 2,2 C 93 % 996,7 hPa 0,0 l/m 0 min 0 min 0 W/m 23,0 km/h (4 Bft)
23.02.2015 22:22 3,9 C 2,2 C 93 % 996,7 hPa 0,0 l/m 0 min 0 min 0 W/m 18,8 km/h (3 Bft)
23.02.2015 22:24 3,9 C 2,2 C 93 % 996,7 hPa 0,0 l/m 0 min 0 min 0 W/m 20,9 km/h (4 Bft)
23.02.2015 22:26 3,9 C 2,2 C 93 % 996,8 hPa 0,0 l/m 0 min 0 min 0 W/m 18,8 km/h (3 Bft)
23.02.2015 22:28 3,9 C 2,2 C 93 % 996,7 hPa 0,0 l/m 0 min 0 min 0 W/m 18,8 km/h (3 Bft)
23.02.2015 22:30 3,9 C 2,2 C 93 % 996,7 hPa 0,0 l/m 0 min 0 min 0 W/m 18,8 km/h (3 Bft)
23.02.2015 22:32 3,9 C 2,2 C 93 % 996,8 hPa 0,0 l/m 0 min 0 min 0 W/m 31,4 km/h (5 Bft)
23.02.2015 22:34 3,9 C 2,2 C 93 % 996,9 hPa 0,0 l/m 0 min 0 min 0 W/m 18,8 km/h (3 Bft)
23.02.2015 22:36 3,9 C 2,2 C 92 % 997,0 hPa 0,0 l/m 0 min 0 min 0 W/m 20,9 km/h (4 Bft)
23.02.2015 22:38 3,8 C 2,2 C 92 % 997,0 hPa 0,0 l/m 0 min 0 min 0 W/m 18,8 km/h (3 Bft)
23.02.2015 22:40 3,8 C 2,2 C 92 % 996,9 hPa 0,0 l/m 0 min 0 min 0 W/m 14,6 km/h (3 Bft)
23.02.2015 22:42 3,8 C 2,2 C 92 % 996,9 hPa 0,0 l/m 0 min 0 min 0 W/m 16,7 km/h (3 Bft)
23.02.2015 22:44 3,8 C 2,2 C 92 % 997,0 hPa 0,0 l/m 0 min 0 min 0 W/m 16,7 km/h (3 Bft)
23.02.2015 22:46 3,8 C 2,2 C 92 % 997,0 hPa 0,0 l/m 0 min 0 min 0 W/m 12,6 km/h (3 Bft)
23.02.2015 22:48 3,8 C 2,2 C 92 % 997,0 hPa 0,0 l/m 0 min 0 min 0 W/m 16,7 km/h (3 Bft)
23.02.2015 22:50 3,8 C 2,2 C 91 % 997,1 hPa 0,0 l/m 0 min 0 min 0 W/m 23,0 km/h (4 Bft)
23.02.2015 22:52 3,8 C 2,2 C 91 % 997,0 hPa 0,0 l/m 0 min 0 min 0 W/m 25,1 km/h (4 Bft)
23.02.2015 22:54 3,7 C 2,2 C 91 % 997,1 hPa 0,0 l/m 0 min 0 min 0 W/m 20,9 km/h (4 Bft)
23.02.2015 22:56 3,7 C 2,2 C 91 % 997,1 hPa 0,0 l/m 0 min 0 min 0 W/m 23,0 km/h (4 Bft)
23.02.2015 22:58 3,7 C 2,2 C 91 % 997,1 hPa 0,0 l/m 0 min 0 min 0 W/m 27,2 km/h (4 Bft)
23.02.2015 23:00 3,7 C 2,2 C 90 % 997,2 hPa 0,0 l/m 0 min 0 min 0 W/m 16,7 km/h (3 Bft)
23.02.2015 23:02 3,7 C 1,7 C 90 % 997,2 hPa 0,0 l/m 0 min 0 min 0 W/m 20,9 km/h (4 Bft)
23.02.2015 23:04 3,7 C 1,7 C 90 % 997,2 hPa 0,0 l/m 0 min 0 min 0 W/m 18,8 km/h (3 Bft)
23.02.2015 23:06 3,7 C 2,2 C 90 % 997,2 hPa 0,0 l/m 0 min 0 min 0 W/m 20,9 km/h (4 Bft)
23.02.2015 23:08 3,7 C 1,7 C 90 % 997,2 hPa 0,0 l/m 0 min 0 min 0 W/m 20,9 km/h (4 Bft)
23.02.2015 23:10 3,7 C 1,7 C 90 % 997,3 hPa 0,0 l/m 0 min 0 min 0 W/m 10,5 km/h (2 Bft)
23.02.2015 23:12 3,7 C 1,7 C 90 % 997,2 hPa 0,0 l/m 0 min 0 min 0 W/m 18,8 km/h (3 Bft)
23.02.2015 23:14 3,7 C 1,7 C 89 % 997,2 hPa 0,0 l/m 0 min 0 min 0 W/m 16,7 km/h (3 Bft)
23.02.2015 23:16 3,7 C 1,7 C 89 % 997,2 hPa 0,0 l/m 0 min 0 min 0 W/m 18,8 km/h (3 Bft)
23.02.2015 23:18 3,6 C 1,7 C 89 % 997,2 hPa 0,0 l/m 0 min 0 min 0 W/m 25,1 km/h (4 Bft)
23.02.2015 23:20 3,6 C 1,7 C 89 % 997,2 hPa 0,0 l/m 0 min 0 min 0 W/m 25,1 km/h (4 Bft)
23.02.2015 23:22 3,6 C 1,7 C 89 % 997,2 hPa 0,0 l/m 0 min 0 min 0 W/m 16,7 km/h (3 Bft)
23.02.2015 23:24 3,6 C 1,7 C 89 % 997,2 hPa 0,0 l/m 0 min 0 min 0 W/m 20,9 km/h (4 Bft)
23.02.2015 23:26 3,6 C 1,7 C 89 % 997,2 hPa 0,0 l/m 0 min 0 min 0 W/m 14,6 km/h (3 Bft)
23.02.2015 23:28 3,6 C 1,7 C 88 % 997,3 hPa 0,0 l/m 0 min 0 min 0 W/m 25,1 km/h (4 Bft)
23.02.2015 23:30 3,5 C 1,7 C 88 % 997,3 hPa 0,0 l/m 0 min 0 min 0 W/m 23,0 km/h (4 Bft)
23.02.2015 23:32 3,5 C 1,7 C 88 % 997,2 hPa 0,0 l/m 0 min 0 min 0 W/m 23,0 km/h (4 Bft)
23.02.2015 23:34 3,6 C 1,7 C 88 % 997,2 hPa 0,0 l/m 0 min 0 min 0 W/m 23,0 km/h (4 Bft)
23.02.2015 23:36 3,5 C 1,7 C 88 % 997,2 hPa 0,0 l/m 0 min 0 min 0 W/m 14,6 km/h (3 Bft)
23.02.2015 23:38 3,5 C 1,7 C 88 % 997,4 hPa 0,0 l/m 0 min 0 min 0 W/m 20,9 km/h (4 Bft)
23.02.2015 23:40 3,5 C 1,7 C 88 % 997,3 hPa 0,0 l/m 0 min 0 min 0 W/m 16,7 km/h (3 Bft)
23.02.2015 23:42 3,5 C 1,7 C 88 % 997,4 hPa 0,0 l/m 0 min 0 min 0 W/m 14,6 km/h (3 Bft)
23.02.2015 23:44 3,4 C 1,7 C 88 % 997,4 hPa 0,0 l/m 0 min 0 min 0 W/m 23,0 km/h (4 Bft)
23.02.2015 23:46 3,4 C 1,7 C 87 % 997,3 hPa 0,0 l/m 0 min 0 min 0 W/m 18,8 km/h (3 Bft)
23.02.2015 23:48 3,4 C 1,7 C 87 % 997,3 hPa 0,0 l/m 0 min 0 min 0 W/m 18,8 km/h (3 Bft)
23.02.2015 23:50 3,4 C 1,7 C 87 % 997,3 hPa 0,0 l/m 0 min 0 min 0 W/m 18,8 km/h (3 Bft)
23.02.2015 23:52 3,4 C 1,7 C 87 % 997,3 hPa 0,0 l/m 0 min 0 min 0 W/m 25,1 km/h (4 Bft)
23.02.2015 23:54 3,4 C 1,7 C 87 % 997,3 hPa 0,0 l/m 0 min 0 min 0 W/m 23,0 km/h (4 Bft)
23.02.2015 23:56 3,4 C 1,7 C 87 % 997,4 hPa 0,0 l/m 0 min 0 min 0 W/m 20,9 km/h (4 Bft)
23.02.2015 23:58 3,4 C 1,7 C 87 % 997,4 hPa 0,0 l/m 0 min 0 min 0 W/m 18,8 km/h (3 Bft)
_ Min-Zeit 05:04 03:48 00:06 15:58 - - - - 07:24
Minimum _ 1,3 C -0,6 C 72 % 993,7 hPa - - - - 6,3 km/h (2 Bft)
_ Max-Zeit 14:48 14:46 10:16 00:02 17:16 13:38 01:08 13:44 17:14
Maximum _ 9,1 C 7,8 C 98 % 1001,4 hPa 0,6 l/m 2 min 2 min 555 W/m 66,9 km/h
W (8 Bft)
Durchschnitt _ 4,3 C 2,8 C 90 % 995,6 hPa #12,8 l/m #1:38 h #7:38 h 123 W/m 21,6 km/h (4 Bft)
© 2015 W. Hausmann